Time,TemperatureF,DewpointF,PressureIn,WindDirection,WindDirectionDegrees,WindSpeedMPH,WindSpeedGustMPH,Humidity,HourlyPrecipIn,Conditions,Clouds,dailyrainin,SoftwareType,DateUTC
2013-04-11 00:00:00,56.8,36.9,30.12,SE,135,2.0,3.0,47,0.07,,,0.67,meteohub,2013-04-11 04:00:00,
2013-04-11 00:01:00,56.8,36.9,30.12,SE,135,2.0,3.0,47,0.06,,,0.67,meteohub,2013-04-11 04:01:00,
2013-04-11 00:05:00,56.8,36.9,30.11,SE,135,0.0,3.0,47,0.07,,,0.01,meteohub,2013-04-11 04:05:00,
2013-04-11 00:06:00,56.8,36.9,30.11,SE,135,0.0,3.0,47,0.07,,,0.01,meteohub,2013-04-11 04:06:00,
2013-04-11 00:11:00,56.8,36.9,30.11,SE,135,3.0,3.0,47,0.05,,,0.01,meteohub,2013-04-11 04:11:00,
2013-04-11 00:12:00,56.8,36.9,30.11,SE,135,2.0,3.0,47,0.05,,,0.01,meteohub,2013-04-11 04:12:00,
2013-04-11 00:16:00,56.8,37.4,30.10,East,90,3.0,3.0,48,0.02,,,0.01,meteohub,2013-04-11 04:16:00,
2013-04-11 00:17:00,56.7,37.2,30.10,SSE,158,2.0,3.0,48,0.02,,,0.01,meteohub,2013-04-11 04:17:00,
2013-04-11 00:18:00,56.7,37.2,30.10,South,180,3.0,3.0,48,0.02,,,0.01,meteohub,2013-04-11 04:18:00,
2013-04-11 00:21:00,56.7,37.2,30.10,SE,135,4.0,4.0,48,0.02,,,0.01,meteohub,2013-04-11 04:21:00,
2013-04-11 00:22:00,56.7,37.2,30.10,SE,135,4.0,4.0,48,0.02,,,0.01,meteohub,2013-04-11 04:22:00,
2013-04-11 00:23:00,56.7,37.2,30.09,SE,135,5.0,5.0,48,0.02,,,0.01,meteohub,2013-04-11 04:23:00,
2013-04-11 00:24:00,56.7,37.2,30.10,SE,135,4.0,4.0,48,0.02,,,0.01,meteohub,2013-04-11 04:24:00,
2013-04-11 00:28:00,56.7,37.2,30.09,SE,135,3.0,5.0,48,0.02,,,0.01,meteohub,2013-04-11 04:28:00,
2013-04-11 00:29:00,56.7,37.2,30.09,SE,135,2.0,5.0,48,0.02,,,0.01,meteohub,2013-04-11 04:29:00,
2013-04-11 00:33:00,56.7,37.8,30.09,South,180,4.0,5.0,49,0.01,,,0.01,meteohub,2013-04-11 04:33:00,
2013-04-11 00:35:00,56.7,37.8,30.09,South,180,3.0,5.0,49,0.01,,,0.01,meteohub,2013-04-11 04:35:00,
2013-04-11 00:39:00,56.7,37.8,30.09,SE,135,4.0,5.0,49,0.01,,,0.01,meteohub,2013-04-11 04:39:00,
2013-04-11 00:40:00,56.7,37.8,30.09,South,180,4.0,5.0,49,0.01,,,0.01,meteohub,2013-04-11 04:40:00,
2013-04-11 00:41:00,56.7,37.8,30.09,South,180,4.0,4.0,49,0.01,,,0.01,meteohub,2013-04-11 04:41:00,
2013-04-11 00:45:00,56.7,37.8,30.09,SE,135,3.0,4.0,49,0.01,,,0.01,meteohub,2013-04-11 04:45:00,
2013-04-11 00:46:00,56.7,37.8,30.09,South,180,3.0,4.0,49,0.01,,,0.01,meteohub,2013-04-11 04:46:00,
2013-04-11 00:47:00,56.7,37.8,30.09,South,180,4.0,4.0,49,0.01,,,0.01,meteohub,2013-04-11 04:47:00,
2013-04-11 00:50:00,56.7,38.3,30.09,South,180,4.0,4.0,50,0.01,,,0.01,meteohub,2013-04-11 04:50:00,
2013-04-11 00:51:00,56.7,38.3,30.08,South,180,4.0,4.0,50,0.01,,,0.01,meteohub,2013-04-11 04:51:00,
2013-04-11 00:53:00,56.7,38.3,30.08,South,180,4.0,4.0,50,0.01,,,0.01,meteohub,2013-04-11 04:53:00,
2013-04-11 00:56:00,56.7,38.3,30.09,South,180,3.0,4.0,50,0.01,,,0.01,meteohub,2013-04-11 04:56:00,
2013-04-11 00:57:00,56.7,38.3,30.09,SE,135,4.0,4.0,50,0.01,,,0.01,meteohub,2013-04-11 04:57:00,
2013-04-11 00:58:00,56.5,38.1,30.09,SE,135,4.0,4.0,50,0.01,,,0.01,meteohub,2013-04-11 04:58:00,
2013-04-11 01:02:00,56.5,38.1,30.09,SE,135,4.0,4.0,50,0.01,,,0.01,meteohub,2013-04-11 05:02:00,
2013-04-11 01:03:00,56.7,38.3,30.09,SE,135,4.0,4.0,50,0.01,,,0.01,meteohub,2013-04-11 05:03:00,
2013-04-11 01:04:00,56.5,38.1,30.09,SE,135,6.0,6.0,50,0.01,,,0.01,meteohub,2013-04-11 05:04:00,
2013-04-11 01:07:00,56.5,38.1,30.09,SE,135,4.0,8.0,50,0.00,,,0.01,meteohub,2013-04-11 05:07:00,
2013-04-11 01:08:00,56.5,38.1,30.09,SE,135,4.0,8.0,50,0.00,,,0.01,meteohub,2013-04-11 05:08:00,
2013-04-11 01:09:00,56.5,38.1,30.10,South,180,7.0,8.0,50,0.00,,,0.01,meteohub,2013-04-11 05:09:00,
2013-04-11 01:13:00,56.3,38.5,30.09,WSW,248,4.0,8.0,51,0.00,,,0.01,meteohub,2013-04-11 05:13:00,
2013-04-11 01:14:00,56.3,38.5,30.09,SE,135,4.0,8.0,51,0.00,,,0.01,meteohub,2013-04-11 05:14:00,
2013-04-11 01:15:00,56.3,38.5,30.10,South,180,4.0,8.0,51,0.00,,,0.01,meteohub,2013-04-11 05:15:00,
2013-04-11 01:18:00,56.3,38.5,30.10,South,180,4.0,8.0,51,0.00,,,0.01,meteohub,2013-04-11 05:18:00,
2013-04-11 01:19:00,56.3,38.5,30.10,SE,135,4.0,8.0,51,0.00,,,0.01,meteohub,2013-04-11 05:19:00,
2013-04-11 01:20:00,56.3,38.5,30.09,SE,135,4.0,8.0,51,0.00,,,0.01,meteohub,2013-04-11 05:20:00,
2013-04-11 01:24:00,56.5,38.7,30.10,South,180,4.0,8.0,51,0.00,,,0.01,meteohub,2013-04-11 05:24:00,
2013-04-11 01:25:00,56.5,38.7,30.10,South,180,5.0,8.0,51,0.00,,,0.01,meteohub,2013-04-11 05:25:00,
2013-04-11 01:26:00,56.5,38.7,30.10,South,180,3.0,7.0,51,0.00,,,0.01,meteohub,2013-04-11 05:26:00,
2013-04-11 01:29:00,56.5,38.7,30.10,SE,135,4.0,7.0,51,0.00,,,0.01,meteohub,2013-04-11 05:29:00,
2013-04-11 01:30:00,56.5,38.7,30.10,SE,135,4.0,7.0,51,0.00,,,0.01,meteohub,2013-04-11 05:30:00,
2013-04-11 01:32:00,56.5,38.7,30.11,SE,135,4.0,6.0,51,0.00,,,0.01,meteohub,2013-04-11 05:32:00,
2013-04-11 01:34:00,56.7,39.2,30.11,SE,135,2.0,6.0,52,0.00,,,0.01,meteohub,2013-04-11 05:34:00,
2013-04-11 01:35:00,56.7,39.2,30.11,East,90,2.0,6.0,52,0.00,,,0.01,meteohub,2013-04-11 05:35:00,
2013-04-11 01:37:00,56.5,39.0,30.11,WSW,248,4.0,6.0,52,0.00,,,0.01,meteohub,2013-04-11 05:37:00,
2013-04-11 01:39:00,56.5,39.0,30.11,South,180,3.0,6.0,52,0.00,,,0.01,meteohub,2013-04-11 05:39:00,
2013-04-11 01:40:00,56.5,39.0,30.11,WSW,248,6.0,6.0,52,0.00,,,0.01,meteohub,2013-04-11 05:40:00,
2013-04-11 01:41:00,56.5,39.0,30.11,WSW,248,6.0,6.0,52,0.00,,,0.01,meteohub,2013-04-11 05:41:00,
2013-04-11 01:42:00,56.7,39.2,30.11,South,180,4.0,6.0,52,0.00,,,0.01,meteohub,2013-04-11 05:42:00,
2013-04-11 01:45:00,56.7,39.2,30.12,South,180,4.0,6.0,52,0.00,,,0.01,meteohub,2013-04-11 05:45:00,
2013-04-11 01:46:00,56.7,39.2,30.12,WSW,248,4.0,6.0,52,0.00,,,0.01,meteohub,2013-04-11 05:46:00,
2013-04-11 01:48:00,56.7,39.2,30.11,WSW,248,4.0,6.0,52,0.00,,,0.01,meteohub,2013-04-11 05:48:00,
2013-04-11 01:50:00,56.7,39.2,30.11,WSW,248,5.0,6.0,52,0.00,,,0.01,meteohub,2013-04-11 05:50:00,
2013-04-11 01:51:00,56.7,39.2,30.12,WSW,248,6.0,6.0,52,0.00,,,0.01,meteohub,2013-04-11 05:51:00,
2013-04-11 01:53:00,56.8,39.4,30.11,WSW,248,2.0,6.0,52,0.00,,,0.01,meteohub,2013-04-11 05:53:00,
2013-04-11 01:55:00,57.0,39.6,30.11,WSW,248,7.0,7.0,52,0.00,,,0.01,meteohub,2013-04-11 05:55:00,
2013-04-11 01:57:00,57.0,39.6,30.12,WSW,248,6.0,6.0,52,0.00,,,0.01,meteohub,2013-04-11 05:57:00,
2013-04-11 01:59:00,57.2,39.7,30.11,South,180,5.0,6.0,52,0.00,,,0.01,meteohub,2013-04-11 05:59:00,
2013-04-11 02:00:00,57.0,39.6,30.12,West,270,4.0,7.0,52,0.00,,,0.01,meteohub,2013-04-11 06:00:00,
2013-04-11 02:03:00,57.4,39.9,30.11,West,270,2.0,7.0,52,0.00,,,0.01,meteohub,2013-04-11 06:03:00,
2013-04-11 02:04:00,57.4,39.9,30.11,West,270,2.0,7.0,52,0.00,,,0.01,meteohub,2013-04-11 06:04:00,
2013-04-11 02:05:00,57.4,39.9,30.11,South,180,2.0,7.0,52,0.00,,,0.01,meteohub,2013-04-11 06:05:00,
2013-04-11 02:09:00,57.4,39.4,30.11,South,180,2.0,7.0,51,0.00,,,0.01,meteohub,2013-04-11 06:09:00,
2013-04-11 02:10:00,57.2,39.2,30.11,WSW,248,3.0,7.0,51,0.00,,,0.01,meteohub,2013-04-11 06:10:00,
2013-04-11 02:11:00,57.2,39.2,30.11,East,90,2.0,7.0,51,0.00,,,0.01,meteohub,2013-04-11 06:11:00,
2013-04-11 02:14:00,57.2,39.2,30.11,WSW,248,2.0,7.0,51,0.00,,,0.01,meteohub,2013-04-11 06:14:00,
2013-04-11 02:15:00,57.2,39.2,30.11,WSW,248,2.0,5.0,51,0.00,,,0.01,meteohub,2013-04-11 06:15:00,
2013-04-11 02:16:00,57.2,39.2,30.11,South,180,2.0,5.0,51,0.00,,,0.01,meteohub,2013-04-11 06:16:00,
2013-04-11 02:17:00,57.2,39.2,30.11,South,180,2.0,5.0,51,0.00,,,0.01,meteohub,2013-04-11 06:17:00,
2013-04-11 02:19:00,57.0,39.0,30.11,WSW,248,0.0,5.0,51,0.00,,,0.01,meteohub,2013-04-11 06:19:00,
2013-04-11 02:21:00,57.0,39.0,30.11,South,180,1.0,3.0,51,0.00,,,0.01,meteohub,2013-04-11 06:21:00,
2013-04-11 02:22:00,57.0,39.0,30.11,South,180,1.0,3.0,51,0.00,,,0.01,meteohub,2013-04-11 06:22:00,
2013-04-11 02:24:00,57.0,38.5,30.11,South,180,3.0,3.0,50,0.00,,,0.01,meteohub,2013-04-11 06:24:00,
2013-04-11 02:27:00,57.0,38.5,30.11,South,180,2.0,3.0,50,0.00,,,0.01,meteohub,2013-04-11 06:27:00,
2013-04-11 02:28:00,57.0,38.5,30.12,South,180,2.0,3.0,50,0.00,,,0.01,meteohub,2013-04-11 06:28:00,
2013-04-11 02:29:00,57.0,38.5,30.11,SE,135,4.0,4.0,50,0.00,,,0.01,meteohub,2013-04-11 06:29:00,
2013-04-11 02:33:00,57.0,38.5,30.11,SE,135,4.0,4.0,50,0.00,,,0.01,meteohub,2013-04-11 06:33:00,
2013-04-11 02:34:00,57.0,38.1,30.11,WSW,248,4.0,4.0,49,0.00,,,0.01,meteohub,2013-04-11 06:34:00,
2013-04-11 02:35:00,57.2,38.3,30.11,South,180,4.0,4.0,49,0.00,,,0.01,meteohub,2013-04-11 06:35:00,
2013-04-11 02:39:00,57.0,38.1,30.11,South,180,3.0,4.0,49,0.00,,,0.01,meteohub,2013-04-11 06:39:00,
2013-04-11 02:40:00,57.0,38.1,30.10,WSW,248,4.0,4.0,49,0.00,,,0.01,meteohub,2013-04-11 06:40:00,
2013-04-11 02:41:00,57.0,38.1,30.10,West,270,2.0,4.0,49,0.00,,,0.01,meteohub,2013-04-11 06:41:00,
2013-04-11 02:44:00,57.0,37.6,30.10,WSW,248,1.0,4.0,48,0.00,,,0.01,meteohub,2013-04-11 06:44:00,
2013-04-11 02:45:00,57.0,37.6,30.10,WSW,248,3.0,4.0,48,0.00,,,0.01,meteohub,2013-04-11 06:45:00,
2013-04-11 02:46:00,57.0,37.6,30.10,WSW,248,3.0,4.0,48,0.00,,,0.01,meteohub,2013-04-11 06:46:00,
2013-04-11 02:48:00,57.0,37.6,30.11,WSW,248,2.0,4.0,48,0.00,,,0.01,meteohub,2013-04-11 06:48:00,
2013-04-11 02:49:00,57.0,37.0,30.11,WSW,248,2.0,4.0,47,0.00,,,0.01,meteohub,2013-04-11 06:49:00,
2013-04-11 02:51:00,57.0,37.0,30.11,West,270,2.0,4.0,47,0.00,,,0.01,meteohub,2013-04-11 06:51:00,
2013-04-11 02:52:00,57.0,37.0,30.11,West,270,2.0,4.0,47,0.00,,,0.01,meteohub,2013-04-11 06:52:00,
2013-04-11 02:54:00,57.0,37.0,30.12,WSW,248,2.0,4.0,47,0.00,,,0.01,meteohub,2013-04-11 06:54:00,
2013-04-11 02:55:00,57.0,37.0,30.12,WSW,248,4.0,5.0,47,0.00,,,0.01,meteohub,2013-04-11 06:55:00,
2013-04-11 02:58:00,57.0,37.0,30.12,South,180,2.0,5.0,47,0.00,,,0.01,meteohub,2013-04-11 06:58:00,
2013-04-11 02:59:00,57.0,37.0,30.12,WSW,248,3.0,5.0,47,0.00,,,0.01,meteohub,2013-04-11 06:59:00,
2013-04-11 03:00:00,57.0,37.0,30.13,South,180,3.0,5.0,47,0.00,,,0.01,meteohub,2013-04-11 07:00:00,
2013-04-11 03:03:00,56.8,36.9,30.13,West,270,0.0,5.0,47,0.00,,,0.01,meteohub,2013-04-11 07:03:00,
2013-04-11 03:04:00,56.8,36.9,30.13,West,270,0.0,5.0,47,0.00,,,0.01,meteohub,2013-04-11 07:04:00,
2013-04-11 03:05:00,56.8,36.9,30.13,NW,315,2.0,5.0,47,0.00,,,0.01,meteohub,2013-04-11 07:05:00,
2013-04-11 03:06:00,56.8,36.9,30.13,NW,315,2.0,5.0,47,0.00,,,0.01,meteohub,2013-04-11 07:06:00,
2013-04-11 03:09:00,56.8,36.9,30.13,NW,315,2.0,5.0,47,0.00,,,0.01,meteohub,2013-04-11 07:09:00,
2013-04-11 03:10:00,56.8,36.9,30.13,NW,315,2.0,5.0,47,0.00,,,0.01,meteohub,2013-04-11 07:10:00,
2013-04-11 03:11:00,56.8,36.9,30.12,North,0,4.0,4.0,47,0.00,,,0.01,meteohub,2013-04-11 07:11:00,
2013-04-11 03:13:00,56.8,36.9,30.13,NW,315,2.0,4.0,47,0.00,,,0.01,meteohub,2013-04-11 07:13:00,
2013-04-11 03:14:00,56.8,36.9,30.12,North,0,2.0,4.0,47,0.00,,,0.01,meteohub,2013-04-11 07:14:00,
2013-04-11 03:16:00,56.8,36.9,30.13,NW,315,3.0,4.0,47,0.00,,,0.01,meteohub,2013-04-11 07:16:00,
2013-04-11 03:19:00,56.8,36.9,30.13,North,0,2.0,4.0,47,0.00,,,0.01,meteohub,2013-04-11 07:19:00,
2013-04-11 03:20:00,56.8,36.9,30.13,NE,45,3.0,4.0,47,0.01,,,0.02,meteohub,2013-04-11 07:20:00,
2013-04-11 03:21:00,56.8,36.9,30.13,NE,45,3.0,4.0,47,0.01,,,0.02,meteohub,2013-04-11 07:21:00,
2013-04-11 03:22:00,56.8,36.9,30.13,NW,315,2.0,4.0,47,0.01,,,0.02,meteohub,2013-04-11 07:22:00,
2013-04-11 03:26:00,56.8,36.9,30.13,NE,45,8.0,8.0,47,0.01,,,0.02,meteohub,2013-04-11 07:26:00,
2013-04-11 03:27:00,56.8,36.9,30.13,North,0,3.0,4.0,47,0.01,,,0.02,meteohub,2013-04-11 07:27:00,
2013-04-11 03:31:00,56.8,36.9,30.13,North,0,3.0,8.0,47,0.01,,,0.02,meteohub,2013-04-11 07:31:00,
2013-04-11 03:32:00,56.8,36.9,30.13,NW,315,3.0,8.0,47,0.01,,,0.02,meteohub,2013-04-11 07:32:00,
2013-04-11 03:34:00,57.0,37.6,30.12,NW,315,6.0,8.0,48,0.01,,,0.02,meteohub,2013-04-11 07:34:00,
2013-04-11 03:37:00,57.0,37.6,30.13,West,270,4.0,8.0,48,0.01,,,0.02,meteohub,2013-04-11 07:37:00,
2013-04-11 03:38:00,57.0,37.6,30.13,West,270,3.0,8.0,48,0.01,,,0.02,meteohub,2013-04-11 07:38:00,
2013-04-11 03:39:00,57.0,37.6,30.13,NE,45,4.0,8.0,48,0.01,,,0.02,meteohub,2013-04-11 07:39:00,
2013-04-11 03:42:00,57.0,37.6,30.13,North,0,2.0,8.0,48,0.01,,,0.02,meteohub,2013-04-11 07:42:00,
2013-04-11 03:43:00,57.0,37.6,30.12,North,0,2.0,8.0,48,0.01,,,0.02,meteohub,2013-04-11 07:43:00,
2013-04-11 03:44:00,57.0,37.6,30.12,NE,45,3.0,8.0,48,0.01,,,0.02,meteohub,2013-04-11 07:44:00,
2013-04-11 03:47:00,57.0,37.0,30.13,NW,315,2.0,6.0,47,0.01,,,0.02,meteohub,2013-04-11 07:47:00,
2013-04-11 03:49:00,57.0,37.6,30.13,North,0,1.0,6.0,48,0.01,,,0.02,meteohub,2013-04-11 07:49:00,
2013-04-11 03:50:00,57.0,37.0,30.13,NW,315,2.0,6.0,47,0.01,,,0.02,meteohub,2013-04-11 07:50:00,
2013-04-11 03:53:00,57.0,37.0,30.12,North,0,1.0,4.0,47,0.01,,,0.02,meteohub,2013-04-11 07:53:00,
2013-04-11 03:54:00,57.0,37.0,30.14,NW,315,4.0,4.0,47,0.01,,,0.02,meteohub,2013-04-11 07:54:00,
2013-04-11 03:55:00,57.0,37.0,30.14,West,270,3.0,4.0,47,0.01,,,0.02,meteohub,2013-04-11 07:55:00,
2013-04-11 03:58:00,57.0,37.0,30.13,NE,45,2.0,4.0,47,0.01,,,0.02,meteohub,2013-04-11 07:58:00,
2013-04-11 04:00:00,57.0,37.0,30.12,South,180,2.0,4.0,47,0.01,,,0.02,meteohub,2013-04-11 08:00:00,
2013-04-11 04:04:00,56.8,36.9,30.12,West,270,2.0,4.0,47,0.01,,,0.02,meteohub,2013-04-11 08:04:00,
2013-04-11 04:05:00,56.8,36.9,30.12,NW,315,4.0,4.0,47,0.01,,,0.02,meteohub,2013-04-11 08:05:00,
2013-04-11 04:06:00,56.8,36.9,30.12,NW,315,2.0,4.0,47,0.01,,,0.02,meteohub,2013-04-11 08:06:00,
2013-04-11 04:10:00,56.7,36.7,30.11,WSW,248,2.0,4.0,47,0.01,,,0.02,meteohub,2013-04-11 08:10:00,
2013-04-11 04:11:00,56.7,36.7,30.12,WSW,248,3.0,4.0,47,0.01,,,0.02,meteohub,2013-04-11 08:11:00,
2013-04-11 04:16:00,56.7,36.7,30.11,South,180,0.0,4.0,47,0.00,,,0.02,meteohub,2013-04-11 08:16:00,
2013-04-11 04:17:00,56.7,36.7,30.11,WSW,248,1.0,4.0,47,0.00,,,0.02,meteohub,2013-04-11 08:17:00,
2013-04-11 04:18:00,56.7,36.7,30.10,SE,135,2.0,4.0,47,0.00,,,0.02,meteohub,2013-04-11 08:18:00,
2013-04-11 04:22:00,56.5,36.5,30.10,SE,135,0.0,3.0,47,0.00,,,0.02,meteohub,2013-04-11 08:22:00,
2013-04-11 04:23:00,56.5,36.5,30.10,South,180,1.0,3.0,47,0.00,,,0.02,meteohub,2013-04-11 08:23:00,
2013-04-11 04:27:00,56.5,36.5,30.10,SE,135,2.0,3.0,47,0.00,,,0.02,meteohub,2013-04-11 08:27:00,
2013-04-11 04:28:00,56.7,36.7,30.10,SE,135,2.0,3.0,47,0.00,,,0.02,meteohub,2013-04-11 08:28:00,
2013-04-11 04:29:00,56.7,36.7,30.10,SE,135,2.0,3.0,47,0.00,,,0.02,meteohub,2013-04-11 08:29:00,
2013-04-11 04:33:00,56.7,36.7,30.10,SE,135,2.0,2.0,47,0.00,,,0.02,meteohub,2013-04-11 08:33:00,
2013-04-11 04:34:00,56.7,37.2,30.10,SE,135,2.0,2.0,48,0.00,,,0.02,meteohub,2013-04-11 08:34:00,
2013-04-11 04:38:00,56.7,37.2,30.10,South,180,0.0,2.0,48,0.00,,,0.02,meteohub,2013-04-11 08:38:00,
2013-04-11 04:39:00,56.7,37.2,30.10,South,180,0.0,2.0,48,0.00,,,0.02,meteohub,2013-04-11 08:39:00,
2013-04-11 04:43:00,56.5,37.0,30.09,SE,135,0.0,2.0,48,0.00,,,0.02,meteohub,2013-04-11 08:43:00,
2013-04-11 04:44:00,56.5,37.0,30.10,South,180,0.0,2.0,48,0.00,,,0.02,meteohub,2013-04-11 08:44:00,
2013-04-11 04:45:00,56.5,37.0,30.10,South,180,0.0,2.0,48,0.00,,,0.02,meteohub,2013-04-11 08:45:00,
2013-04-11 04:48:00,56.3,36.9,30.09,SE,135,0.0,2.0,48,0.00,,,0.02,meteohub,2013-04-11 08:48:00,
2013-04-11 04:50:00,56.3,36.9,30.09,SE,135,2.0,2.0,48,0.00,,,0.02,meteohub,2013-04-11 08:50:00,
2013-04-11 04:53:00,56.3,36.9,30.09,SE,135,2.0,2.0,48,0.00,,,0.02,meteohub,2013-04-11 08:53:00,
2013-04-11 04:55:00,56.1,36.7,30.09,SE,135,3.0,3.0,48,0.00,,,0.02,meteohub,2013-04-11 08:55:00,
2013-04-11 04:56:00,56.1,36.7,30.09,SE,135,3.0,3.0,48,0.00,,,0.02,meteohub,2013-04-11 08:56:00,
2013-04-11 04:57:00,56.1,36.7,30.08,SE,135,2.0,2.0,48,0.00,,,0.02,meteohub,2013-04-11 08:57:00,
2013-04-11 04:58:00,56.1,36.7,30.09,SE,135,3.0,3.0,48,0.00,,,0.02,meteohub,2013-04-11 08:58:00,
2013-04-11 05:01:00,56.1,36.7,30.09,SE,135,3.0,3.0,48,0.00,,,0.02,meteohub,2013-04-11 09:01:00,
2013-04-11 05:02:00,55.9,36.5,30.09,SE,135,3.0,3.0,48,0.00,,,0.02,meteohub,2013-04-11 09:02:00,
2013-04-11 05:04:00,56.1,36.7,30.09,SE,135,3.0,3.0,48,0.00,,,0.02,meteohub,2013-04-11 09:04:00,
2013-04-11 05:07:00,56.3,36.9,30.09,SE,135,2.0,3.0,48,0.00,,,0.02,meteohub,2013-04-11 09:07:00,
2013-04-11 05:08:00,56.3,37.4,30.08,East,90,3.0,3.0,49,0.00,,,0.02,meteohub,2013-04-11 09:08:00,
2013-04-11 05:09:00,56.3,37.4,30.08,SE,135,2.0,3.0,49,0.00,,,0.02,meteohub,2013-04-11 09:09:00,
2013-04-11 05:12:00,56.3,37.4,30.09,SE,135,2.0,4.0,49,0.00,,,0.02,meteohub,2013-04-11 09:12:00,
2013-04-11 05:13:00,56.3,37.4,30.08,SE,135,2.0,4.0,49,0.00,,,0.02,meteohub,2013-04-11 09:13:00,
2013-04-11 05:16:00,56.5,37.6,30.08,SE,135,3.0,4.0,49,0.00,,,0.02,meteohub,2013-04-11 09:16:00,
2013-04-11 05:17:00,56.5,37.0,30.08,South,180,4.0,4.0,48,0.00,,,0.02,meteohub,2013-04-11 09:17:00,
2013-04-11 05:19:00,56.5,37.0,30.08,SE,135,3.0,4.0,48,0.00,,,0.02,meteohub,2013-04-11 09:19:00,
2013-04-11 05:22:00,56.7,37.2,30.08,South,180,2.0,4.0,48,0.00,,,0.02,meteohub,2013-04-11 09:22:00,
2013-04-11 05:23:00,56.7,37.2,30.09,South,180,3.0,4.0,48,0.00,,,0.02,meteohub,2013-04-11 09:23:00,
2013-04-11 05:24:00,56.7,37.2,30.08,SE,135,2.0,4.0,48,0.00,,,0.02,meteohub,2013-04-11 09:24:00,
2013-04-11 05:27:00,56.7,37.2,30.09,South,180,2.0,4.0,48,0.00,,,0.02,meteohub,2013-04-11 09:27:00,
2013-04-11 05:28:00,56.7,37.2,30.08,SE,135,2.0,4.0,48,0.00,,,0.02,meteohub,2013-04-11 09:28:00,
2013-04-11 05:30:00,56.7,36.7,30.09,South,180,2.0,4.0,47,0.00,,,0.02,meteohub,2013-04-11 09:30:00,
2013-04-11 05:32:00,56.5,36.5,30.09,SE,135,2.0,4.0,47,0.00,,,0.02,meteohub,2013-04-11 09:32:00,
2013-04-11 05:33:00,56.5,36.5,30.09,SE,135,2.0,4.0,47,0.00,,,0.02,meteohub,2013-04-11 09:33:00,
2013-04-11 05:35:00,56.5,36.5,30.08,SE,135,4.0,4.0,47,0.00,,,0.02,meteohub,2013-04-11 09:35:00,
2013-04-11 05:37:00,56.5,36.5,30.08,SE,135,3.0,4.0,47,0.00,,,0.02,meteohub,2013-04-11 09:37:00,
2013-04-11 05:38:00,56.5,36.5,30.08,SE,135,3.0,4.0,47,0.00,,,0.02,meteohub,2013-04-11 09:38:00,
2013-04-11 05:39:00,56.7,36.7,30.09,SE,135,2.0,4.0,47,0.00,,,0.02,meteohub,2013-04-11 09:39:00,
2013-04-11 05:40:00,56.7,36.7,30.08,South,180,3.0,4.0,47,0.00,,,0.02,meteohub,2013-04-11 09:40:00,
2013-04-11 05:42:00,56.7,36.1,30.08,South,180,2.0,4.0,46,0.00,,,0.02,meteohub,2013-04-11 09:42:00,
2013-04-11 05:43:00,56.7,36.1,30.08,South,180,2.0,4.0,46,0.00,,,0.02,meteohub,2013-04-11 09:43:00,
2013-04-11 05:44:00,56.7,36.1,30.08,SE,135,2.0,4.0,46,0.00,,,0.02,meteohub,2013-04-11 09:44:00,
2013-04-11 05:47:00,56.7,36.1,30.08,South,180,3.0,4.0,46,0.00,,,0.02,meteohub,2013-04-11 09:47:00,
2013-04-11 05:48:00,56.7,36.1,30.08,SE,135,3.0,4.0,46,0.00,,,0.02,meteohub,2013-04-11 09:48:00,
2013-04-11 05:49:00,56.7,36.1,30.08,SE,135,3.0,4.0,46,0.00,,,0.02,meteohub,2013-04-11 09:49:00,
2013-04-11 05:51:00,56.7,35.6,30.07,SE,135,2.0,4.0,45,0.00,,,0.02,meteohub,2013-04-11 09:51:00,
2013-04-11 05:52:00,56.7,35.6,30.08,East,90,4.0,4.0,45,0.00,,,0.02,meteohub,2013-04-11 09:52:00,
2013-04-11 05:53:00,56.8,35.8,30.08,SE,135,2.0,4.0,45,0.00,,,0.02,meteohub,2013-04-11 09:53:00,
2013-04-11 05:54:00,56.8,35.8,30.07,SE,135,4.0,4.0,45,0.00,,,0.02,meteohub,2013-04-11 09:54:00,
2013-04-11 05:56:00,56.8,35.2,30.08,South,180,3.0,4.0,44,0.00,,,0.02,meteohub,2013-04-11 09:56:00,
2013-04-11 05:58:00,56.8,35.2,30.07,SE,135,3.0,4.0,44,0.00,,,0.02,meteohub,2013-04-11 09:58:00,
2013-04-11 05:59:00,57.0,35.2,30.08,SE,135,3.0,4.0,44,0.00,,,0.02,meteohub,2013-04-11 09:59:00,
2013-04-11 06:00:00,57.0,35.2,30.07,South,180,3.0,4.0,44,0.00,,,0.02,meteohub,2013-04-11 10:00:00,
2013-04-11 06:02:00,57.0,34.7,30.07,SE,135,2.0,4.0,43,0.00,,,0.02,meteohub,2013-04-11 10:02:00,
2013-04-11 06:05:00,57.0,34.7,30.07,SE,135,3.0,4.0,43,0.00,,,0.02,meteohub,2013-04-11 10:05:00,
2013-04-11 06:07:00,57.0,34.2,30.07,South,180,3.0,4.0,42,0.00,,,0.02,meteohub,2013-04-11 10:07:00,
2013-04-11 06:10:00,57.2,33.6,30.07,SE,135,4.0,4.0,41,0.00,,,0.02,meteohub,2013-04-11 10:10:00,
2013-04-11 06:11:00,57.2,33.6,30.07,SE,135,4.0,4.0,41,0.00,,,0.02,meteohub,2013-04-11 10:11:00,
2013-04-11 06:12:00,57.2,33.6,30.07,SE,135,3.0,4.0,41,0.00,,,0.02,meteohub,2013-04-11 10:12:00,
2013-04-11 06:13:00,57.2,33.1,30.07,SE,135,2.0,4.0,40,0.00,,,0.02,meteohub,2013-04-11 10:13:00,
2013-04-11 06:15:00,57.2,33.1,30.07,South,180,4.0,4.0,40,0.00,,,0.02,meteohub,2013-04-11 10:15:00,
2013-04-11 06:16:00,57.2,32.5,30.07,SE,135,2.0,4.0,39,0.00,,,0.02,meteohub,2013-04-11 10:16:00,
2013-04-11 06:17:00,57.2,32.5,30.07,SE,135,2.0,4.0,39,0.00,,,0.02,meteohub,2013-04-11 10:17:00,
2013-04-11 06:19:00,57.2,32.5,30.07,SE,135,2.0,4.0,39,0.00,,,0.02,meteohub,2013-04-11 10:19:00,
2013-04-11 06:21:00,57.0,32.4,30.07,SE,135,3.0,4.0,39,0.00,,,0.02,meteohub,2013-04-11 10:21:00,
2013-04-11 06:22:00,57.0,32.4,30.06,SE,135,3.0,4.0,39,0.00,,,0.02,meteohub,2013-04-11 10:22:00,
2013-04-11 06:24:00,57.0,32.4,30.07,South,180,3.0,4.0,39,0.00,,,0.02,meteohub,2013-04-11 10:24:00,
2013-04-11 06:26:00,57.0,32.4,30.07,SE,135,3.0,4.0,39,0.00,,,0.02,meteohub,2013-04-11 10:26:00,
2013-04-11 06:27:00,56.8,32.2,30.07,SE,135,3.0,4.0,39,0.00,,,0.02,meteohub,2013-04-11 10:27:00,
2013-04-11 06:28:00,57.0,32.4,30.07,East,90,2.0,4.0,39,0.00,,,0.02,meteohub,2013-04-11 10:28:00,
2013-04-11 06:30:00,57.0,32.4,30.07,SE,135,2.0,4.0,39,0.00,,,0.02,meteohub,2013-04-11 10:30:00,
2013-04-11 06:33:00,57.0,31.6,30.07,South,180,3.0,4.0,38,0.00,,,0.02,meteohub,2013-04-11 10:33:00,
2013-04-11 06:34:00,57.0,31.6,30.07,SE,135,3.0,4.0,38,0.00,,,0.02,meteohub,2013-04-11 10:34:00,
2013-04-11 06:35:00,57.0,31.6,30.06,SE,135,3.0,4.0,38,0.00,,,0.02,meteohub,2013-04-11 10:35:00,
2013-04-11 06:38:00,57.2,31.1,30.07,East,90,2.0,4.0,37,0.00,,,0.02,meteohub,2013-04-11 10:38:00,
2013-04-11 06:39:00,57.0,30.9,30.07,SE,135,3.0,4.0,37,0.00,,,0.02,meteohub,2013-04-11 10:39:00,
2013-04-11 06:40:00,57.0,30.9,30.06,SE,135,2.0,4.0,37,0.00,,,0.02,meteohub,2013-04-11 10:40:00,
2013-04-11 06:41:00,57.0,30.9,30.06,SE,135,2.0,4.0,37,0.00,,,0.02,meteohub,2013-04-11 10:41:00,
2013-04-11 06:43:00,57.0,30.4,30.07,SE,135,3.0,4.0,36,0.00,,,0.02,meteohub,2013-04-11 10:43:00,
2013-04-11 06:44:00,57.0,30.4,30.07,SE,135,3.0,4.0,36,0.00,,,0.02,meteohub,2013-04-11 10:44:00,
2013-04-11 06:45:00,57.0,30.4,30.07,SE,135,2.0,4.0,36,0.00,,,0.02,meteohub,2013-04-11 10:45:00,
2013-04-11 06:46:00,57.2,30.6,30.07,SE,135,2.0,4.0,36,0.00,,,0.02,meteohub,2013-04-11 10:46:00,
2013-04-11 06:49:00,57.0,30.4,30.07,SE,135,2.0,4.0,36,0.00,,,0.02,meteohub,2013-04-11 10:49:00,
2013-04-11 06:51:00,57.0,30.4,30.07,SE,135,2.0,4.0,36,0.00,,,0.02,meteohub,2013-04-11 10:51:00,
2013-04-11 06:53:00,57.0,30.4,30.07,SE,135,2.0,4.0,36,0.00,,,0.02,meteohub,2013-04-11 10:53:00,
2013-04-11 06:54:00,57.0,29.7,30.07,SE,135,2.0,4.0,35,0.00,,,0.02,meteohub,2013-04-11 10:54:00,
2013-04-11 06:55:00,57.0,29.7,30.07,SE,135,3.0,4.0,35,0.00,,,0.02,meteohub,2013-04-11 10:55:00,
2013-04-11 06:57:00,57.0,29.7,30.07,East,90,3.0,3.0,35,0.00,,,0.02,meteohub,2013-04-11 10:57:00,
2013-04-11 06:59:00,57.0,29.7,30.07,SE,135,3.0,3.0,35,0.00,,,0.02,meteohub,2013-04-11 10:59:00,
2013-04-11 07:00:00,57.0,29.7,30.07,SE,135,3.0,3.0,35,0.00,,,0.02,meteohub,2013-04-11 11:00:00,
2013-04-11 07:02:00,57.0,29.7,30.07,SE,135,3.0,3.0,35,0.00,,,0.02,meteohub,2013-04-11 11:02:00,
2013-04-11 07:05:00,57.2,29.8,30.07,SE,135,2.0,3.0,35,0.00,,,0.02,meteohub,2013-04-11 11:05:00,
2013-04-11 07:06:00,57.2,29.8,30.08,SE,135,2.0,3.0,35,0.00,,,0.02,meteohub,2013-04-11 11:06:00,
2013-04-11 07:07:00,57.2,29.1,30.07,SE,135,3.0,3.0,34,0.00,,,0.02,meteohub,2013-04-11 11:07:00,
2013-04-11 07:10:00,57.2,29.1,30.07,SE,135,2.0,3.0,34,0.00,,,0.02,meteohub,2013-04-11 11:10:00,
2013-04-11 07:11:00,57.2,29.1,30.07,East,90,2.0,3.0,34,0.00,,,0.02,meteohub,2013-04-11 11:11:00,
2013-04-11 07:12:00,57.2,29.1,30.07,SE,135,2.0,3.0,34,0.00,,,0.02,meteohub,2013-04-11 11:12:00,
2013-04-11 07:15:00,57.2,29.1,30.07,SE,135,2.0,3.0,34,0.00,,,0.02,meteohub,2013-04-11 11:15:00,
2013-04-11 07:16:00,57.2,29.1,30.07,East,90,4.0,4.0,34,0.00,,,0.02,meteohub,2013-04-11 11:16:00,
2013-04-11 07:17:00,57.2,29.1,30.07,SE,135,3.0,3.0,34,0.00,,,0.02,meteohub,2013-04-11 11:17:00,
2013-04-11 07:22:00,57.4,29.3,30.07,SE,135,2.0,4.0,34,0.00,,,0.02,meteohub,2013-04-11 11:22:00,
2013-04-11 07:23:00,57.4,28.6,30.07,SE,135,4.0,4.0,33,0.00,,,0.02,meteohub,2013-04-11 11:23:00,
2013-04-11 07:27:00,57.4,28.6,30.07,East,90,2.0,4.0,33,0.00,,,0.02,meteohub,2013-04-11 11:27:00,
2013-04-11 07:28:00,57.6,27.9,30.07,SE,135,2.0,4.0,32,0.00,,,0.02,meteohub,2013-04-11 11:28:00,
2013-04-11 07:29:00,57.6,27.9,30.07,East,90,1.0,4.0,32,0.00,,,0.02,meteohub,2013-04-11 11:29:00,
2013-04-11 07:32:00,57.6,27.9,30.07,SE,135,2.0,4.0,32,0.00,,,0.02,meteohub,2013-04-11 11:32:00,
2013-04-11 07:33:00,57.7,27.3,30.07,SE,135,2.0,4.0,31,0.00,,,0.02,meteohub,2013-04-11 11:33:00,
2013-04-11 07:34:00,57.7,27.3,30.07,SE,135,2.0,4.0,31,0.00,,,0.02,meteohub,2013-04-11 11:34:00,
2013-04-11 07:35:00,57.7,27.3,30.07,SE,135,1.0,4.0,31,0.00,,,0.02,meteohub,2013-04-11 11:35:00,
2013-04-11 07:37:00,57.9,26.6,30.07,SE,135,2.0,4.0,30,0.00,,,0.02,meteohub,2013-04-11 11:37:00,
2013-04-11 07:39:00,57.9,26.6,30.08,SE,135,1.0,4.0,30,0.00,,,0.02,meteohub,2013-04-11 11:39:00,
2013-04-11 07:40:00,57.9,26.6,30.08,SE,135,2.0,2.0,30,0.00,,,0.02,meteohub,2013-04-11 11:40:00,
2013-04-11 07:41:00,57.9,25.9,30.08,East,90,2.0,2.0,29,0.00,,,0.02,meteohub,2013-04-11 11:41:00,
2013-04-11 07:42:00,58.1,26.1,30.08,East,90,2.0,2.0,29,0.00,,,0.02,meteohub,2013-04-11 11:42:00,
2013-04-11 07:44:00,58.3,26.2,30.08,SE,135,2.0,2.0,29,0.00,,,0.02,meteohub,2013-04-11 11:44:00,
2013-04-11 07:45:00,58.3,26.2,30.08,SE,135,2.0,2.0,29,0.00,,,0.02,meteohub,2013-04-11 11:45:00,
2013-04-11 07:46:00,58.3,26.2,30.08,SE,135,2.0,2.0,29,0.00,,,0.02,meteohub,2013-04-11 11:46:00,
2013-04-11 07:48:00,58.8,25.0,30.08,SE,135,2.0,2.0,27,0.00,,,0.02,meteohub,2013-04-11 11:48:00,
2013-04-11 07:51:00,59.0,23.2,30.08,SE,135,2.0,2.0,25,0.00,,,0.02,meteohub,2013-04-11 11:51:00,
2013-04-11 07:52:00,59.0,23.2,30.08,SE,135,1.0,2.0,25,0.00,,,0.02,meteohub,2013-04-11 11:52:00,
2013-04-11 07:54:00,59.0,22.3,30.08,SE,135,1.0,2.0,24,0.00,,,0.02,meteohub,2013-04-11 11:54:00,
2013-04-11 07:56:00,59.2,22.5,30.08,East,90,0.0,2.0,24,0.00,,,0.02,meteohub,2013-04-11 11:56:00,
2013-04-11 07:57:00,59.2,22.5,30.08,East,90,0.0,2.0,24,0.00,,,0.02,meteohub,2013-04-11 11:57:00,
2013-04-11 07:59:00,59.2,21.4,30.07,SE,135,0.0,2.0,23,0.00,,,0.02,meteohub,2013-04-11 11:59:00,
2013-04-11 08:02:00,59.2,21.4,30.08,East,90,0.0,2.0,23,0.00,,,0.02,meteohub,2013-04-11 12:02:00,
2013-04-11 08:03:00,59.2,21.4,30.08,East,90,0.0,2.0,23,0.00,,,0.02,meteohub,2013-04-11 12:03:00,
2013-04-11 08:04:00,59.2,21.4,30.08,East,90,0.0,2.0,23,0.00,,,0.02,meteohub,2013-04-11 12:04:00,
2013-04-11 08:06:00,59.2,21.4,30.08,East,90,0.0,2.0,23,0.00,,,0.02,meteohub,2013-04-11 12:06:00,
2013-04-11 08:07:00,59.5,21.7,30.08,SE,135,0.0,2.0,23,0.00,,,0.02,meteohub,2013-04-11 12:07:00,
2013-04-11 08:08:00,59.5,21.7,30.08,SE,135,0.0,2.0,23,0.00,,,0.02,meteohub,2013-04-11 12:08:00,
2013-04-11 08:10:00,59.7,20.8,30.08,East,90,0.0,0.0,22,0.00,,,0.02,meteohub,2013-04-11 12:10:00,
2013-04-11 08:12:00,60.1,19.9,30.08,SE,135,0.0,0.0,21,0.00,,,0.02,meteohub,2013-04-11 12:12:00,
2013-04-11 08:13:00,60.3,19.0,30.08,SE,135,0.0,0.0,20,0.00,,,0.02,meteohub,2013-04-11 12:13:00,
2013-04-11 08:15:00,61.0,18.5,30.08,SE,135,0.0,0.0,19,0.00,,,0.02,meteohub,2013-04-11 12:15:00,
2013-04-11 08:16:00,61.2,18.5,30.08,East,90,0.0,0.0,19,0.00,,,0.02,meteohub,2013-04-11 12:16:00,
2013-04-11 08:17:00,61.3,17.4,30.08,East,90,0.0,0.0,18,0.00,,,0.02,meteohub,2013-04-11 12:17:00,
2013-04-11 08:18:00,61.5,17.6,30.08,East,90,0.0,0.0,18,0.00,,,0.02,meteohub,2013-04-11 12:18:00,
2013-04-11 08:20:00,61.7,15.1,30.08,SE,135,4.0,0.0,16,0.00,,,0.02,meteohub,2013-04-11 12:20:00,
2013-04-11 08:22:00,61.7,12.0,30.08,East,90,3.0,0.0,14,0.00,,,0.02,meteohub,2013-04-11 12:22:00,
2013-04-11 08:23:00,61.7,13.6,30.08,SE,135,3.0,0.0,15,0.00,,,0.02,meteohub,2013-04-11 12:23:00,
2013-04-11 08:25:00,61.5,11.8,30.08,SE,135,3.0,0.0,14,0.00,,,0.02,meteohub,2013-04-11 12:25:00,
2013-04-11 08:27:00,61.7,61.7,30.07,SE,135,5.0,5.0,0,0.00,,,0.02,meteohub,2013-04-11 12:27:00,
2013-04-11 08:28:00,61.7,61.7,30.07,SE,135,5.0,5.0,0,0.00,,,0.02,meteohub,2013-04-11 12:28:00,
2013-04-11 08:30:00,61.9,61.9,30.07,SE,135,3.0,5.0,0,0.00,,,0.02,meteohub,2013-04-11 12:30:00,
2013-04-11 08:31:00,62.1,62.1,30.08,SE,135,4.0,5.0,0,0.00,,,0.02,meteohub,2013-04-11 12:31:00,
2013-04-11 08:33:00,62.4,62.4,30.08,SE,135,3.0,5.0,0,0.00,,,0.02,meteohub,2013-04-11 12:33:00,
2013-04-11 08:34:00,62.6,62.6,30.07,SE,135,4.0,5.0,0,0.00,,,0.02,meteohub,2013-04-11 12:34:00,
2013-04-11 08:36:00,62.6,62.6,30.07,SE,135,3.0,5.0,0,0.00,,,0.02,meteohub,2013-04-11 12:36:00,
2013-04-11 08:39:00,63.0,63.0,30.08,SE,135,3.0,5.0,0,0.00,,,0.02,meteohub,2013-04-11 12:39:00,
2013-04-11 08:42:00,63.1,63.1,30.08,East,90,4.0,5.0,0,0.00,,,0.02,meteohub,2013-04-11 12:42:00,
2013-04-11 08:43:00,63.3,63.3,30.07,South,180,4.0,5.0,0,0.00,,,0.02,meteohub,2013-04-11 12:43:00,
2013-04-11 08:44:00,63.5,63.5,30.07,SE,135,4.0,5.0,0,0.00,,,0.02,meteohub,2013-04-11 12:44:00,
2013-04-11 08:46:00,63.5,63.5,30.08,South,180,4.0,4.0,0,0.00,,,0.02,meteohub,2013-04-11 12:46:00,
2013-04-11 08:47:00,63.7,63.7,30.08,SE,135,3.0,4.0,0,0.00,,,0.02,meteohub,2013-04-11 12:47:00,
2013-04-11 08:48:00,63.9,63.9,30.08,SE,135,2.0,4.0,0,0.00,,,0.02,meteohub,2013-04-11 12:48:00,
2013-04-11 08:50:00,64.0,64.0,30.08,SE,135,5.0,5.0,0,0.00,,,0.02,meteohub,2013-04-11 12:50:00,
2013-04-11 08:52:00,64.2,64.2,30.08,South,180,4.0,5.0,0,0.00,,,0.02,meteohub,2013-04-11 12:52:00,
2013-04-11 08:53:00,64.2,64.2,30.08,SE,135,4.0,5.0,0,0.00,,,0.02,meteohub,2013-04-11 12:53:00,
2013-04-11 08:56:00,63.9,63.9,30.08,South,180,4.0,7.0,0,0.00,,,0.02,meteohub,2013-04-11 12:56:00,
2013-04-11 08:58:00,63.9,63.9,30.08,South,180,5.0,7.0,0,0.00,,,0.02,meteohub,2013-04-11 12:58:00,
2013-04-11 09:00:00,64.0,64.0,30.08,SE,135,4.0,7.0,0,0.00,,,0.02,meteohub,2013-04-11 13:00:00,
2013-04-11 09:01:00,64.0,64.0,30.08,SE,135,4.0,7.0,0,0.00,,,0.02,meteohub,2013-04-11 13:01:00,
2013-04-11 09:03:00,64.6,64.6,30.08,SE,135,3.0,7.0,0,0.00,,,0.02,meteohub,2013-04-11 13:03:00,
2013-04-11 09:04:00,64.8,64.8,30.08,SE,135,4.0,7.0,0,0.00,,,0.02,meteohub,2013-04-11 13:04:00,
2013-04-11 09:06:00,65.3,65.3,30.08,SE,135,5.0,7.0,0,0.00,,,0.02,meteohub,2013-04-11 13:06:00,
2013-04-11 09:07:00,65.3,65.3,30.08,SE,135,5.0,7.0,0,0.00,,,0.02,meteohub,2013-04-11 13:07:00,
2013-04-11 09:09:00,65.3,65.3,30.08,SE,135,4.0,7.0,0,0.00,,,0.02,meteohub,2013-04-11 13:09:00,
2013-04-11 09:12:00,65.5,65.5,30.08,SE,135,3.0,6.0,0,0.00,,,0.02,meteohub,2013-04-11 13:12:00,
2013-04-11 09:14:00,65.5,65.5,30.08,SE,135,6.0,6.0,0,0.00,,,0.02,meteohub,2013-04-11 13:14:00,
2013-04-11 09:15:00,65.5,65.5,30.08,SE,135,3.0,6.0,0,0.00,,,0.02,meteohub,2013-04-11 13:15:00,
2013-04-11 09:17:00,65.1,65.1,30.09,SE,135,6.0,6.0,0,0.00,,,0.02,meteohub,2013-04-11 13:17:00,
2013-04-11 09:18:00,64.9,64.9,30.08,SE,135,3.0,6.0,0,0.00,,,0.02,meteohub,2013-04-11 13:18:00,
2013-04-11 09:20:00,64.8,64.8,30.09,SE,135,4.0,6.0,0,0.00,,,0.02,meteohub,2013-04-11 13:20:00,
2013-04-11 09:22:00,64.4,64.4,30.08,East,90,4.0,6.0,0,0.00,,,0.02,meteohub,2013-04-11 13:22:00,
2013-04-11 09:23:00,64.4,64.4,30.08,SE,135,4.0,6.0,0,0.00,,,0.02,meteohub,2013-04-11 13:23:00,
2013-04-11 09:26:00,64.0,64.0,30.09,East,90,3.0,6.0,0,0.00,,,0.02,meteohub,2013-04-11 13:26:00,
2013-04-11 09:28:00,64.0,64.0,30.08,East,90,3.0,6.0,0,0.00,,,0.02,meteohub,2013-04-11 13:28:00,
2013-04-11 09:29:00,64.0,64.0,30.08,SE,135,3.0,6.0,0,0.00,,,0.02,meteohub,2013-04-11 13:29:00,
2013-04-11 09:30:00,64.0,64.0,30.08,ESE,113,4.0,6.0,0,0.00,,,0.02,meteohub,2013-04-11 13:30:00,
2013-04-11 09:32:00,64.0,64.0,30.08,ESE,113,4.0,6.0,0,0.00,,,0.02,meteohub,2013-04-11 13:32:00,
2013-04-11 09:33:00,64.0,64.0,30.08,SE,135,4.0,6.0,0,0.00,,,0.02,meteohub,2013-04-11 13:33:00,
2013-04-11 09:34:00,64.0,64.0,30.09,SE,135,2.0,6.0,0,0.00,,,0.02,meteohub,2013-04-11 13:34:00,
2013-04-11 09:36:00,64.0,64.0,30.08,SE,135,4.0,5.0,0,0.00,,,0.02,meteohub,2013-04-11 13:36:00,
2013-04-11 09:37:00,64.0,64.0,30.09,SE,135,3.0,5.0,0,0.00,,,0.02,meteohub,2013-04-11 13:37:00,
2013-04-11 09:38:00,64.0,64.0,30.08,South,180,5.0,5.0,0,0.00,,,0.02,meteohub,2013-04-11 13:38:00,
2013-04-11 09:39:00,64.0,64.0,30.08,SE,135,2.0,5.0,0,0.00,,,0.02,meteohub,2013-04-11 13:39:00,
2013-04-11 09:41:00,64.4,64.4,30.08,SE,135,2.0,5.0,0,0.00,,,0.02,meteohub,2013-04-11 13:41:00,
2013-04-11 09:44:00,64.9,64.9,30.08,South,180,5.0,5.0,0,0.00,,,0.02,meteohub,2013-04-11 13:44:00,
2013-04-11 09:45:00,65.1,65.1,30.09,SE,135,2.0,5.0,0,0.00,,,0.02,meteohub,2013-04-11 13:45:00,
2013-04-11 09:47:00,65.5,65.5,30.09,East,90,4.0,5.0,0,0.00,,,0.02,meteohub,2013-04-11 13:47:00,
2013-04-11 09:49:00,65.5,65.5,30.09,SE,135,4.0,5.0,0,0.00,,,0.02,meteohub,2013-04-11 13:49:00,
2013-04-11 09:50:00,65.5,65.5,30.09,South,180,3.0,5.0,0,0.00,,,0.02,meteohub,2013-04-11 13:50:00,
2013-04-11 09:52:00,65.7,65.7,30.09,SE,135,4.0,5.0,0,0.00,,,0.02,meteohub,2013-04-11 13:52:00,
2013-04-11 09:55:00,66.2,66.2,30.09,SE,135,2.0,5.0,0,0.00,,,0.02,meteohub,2013-04-11 13:55:00,
2013-04-11 09:57:00,66.7,66.7,30.09,SE,135,3.0,5.0,0,0.00,,,0.02,meteohub,2013-04-11 13:57:00,
2013-04-11 10:00:00,66.9,66.9,30.09,SE,135,3.0,4.0,0,0.00,,,0.02,meteohub,2013-04-11 14:00:00,
2013-04-11 10:01:00,66.9,66.9,30.08,SE,135,3.0,4.0,0,0.00,,,0.02,meteohub,2013-04-11 14:01:00,
2013-04-11 10:03:00,67.1,67.1,30.09,SE,135,3.0,4.0,0,0.00,,,0.02,meteohub,2013-04-11 14:03:00,
2013-04-11 10:05:00,67.3,67.3,30.09,SE,135,6.0,6.0,0,0.00,,,0.02,meteohub,2013-04-11 14:05:00,
2013-04-11 10:06:00,67.3,67.3,30.09,SE,135,4.0,4.0,0,0.00,,,0.02,meteohub,2013-04-11 14:06:00,
2013-04-11 10:08:00,67.3,67.3,30.09,SE,135,4.0,4.0,0,0.00,,,0.02,meteohub,2013-04-11 14:08:00,
2013-04-11 10:10:00,67.3,67.3,30.09,South,180,5.0,6.0,0,0.00,,,0.02,meteohub,2013-04-11 14:10:00,
2013-04-11 10:12:00,67.5,67.5,30.08,South,180,6.0,6.0,0,0.00,,,0.02,meteohub,2013-04-11 14:12:00,
2013-04-11 10:13:00,67.5,67.5,30.08,SE,135,3.0,6.0,0,0.00,,,0.02,meteohub,2013-04-11 14:13:00,
2013-04-11 10:15:00,67.6,67.6,30.09,South,180,4.0,6.0,0,0.00,,,0.02,meteohub,2013-04-11 14:15:00,
2013-04-11 10:17:00,68.0,68.0,30.08,WSW,248,2.0,6.0,0,0.00,,,0.02,meteohub,2013-04-11 14:17:00,
2013-04-11 10:19:00,68.4,68.4,30.09,SSE,158,4.0,6.0,0,0.00,,,0.02,meteohub,2013-04-11 14:19:00,
2013-04-11 10:20:00,68.5,68.5,30.09,South,180,6.0,6.0,0,0.00,,,0.02,meteohub,2013-04-11 14:20:00,
2013-04-11 10:22:00,68.9,68.9,30.09,South,180,6.0,6.0,0,0.00,,,0.02,meteohub,2013-04-11 14:22:00,
2013-04-11 10:24:00,69.1,69.1,30.08,SE,135,4.0,6.0,0,0.00,,,0.02,meteohub,2013-04-11 14:24:00,
2013-04-11 10:25:00,68.9,68.9,30.09,SE,135,5.0,6.0,0,0.00,,,0.02,meteohub,2013-04-11 14:25:00,
2013-04-11 10:29:00,68.9,68.9,30.09,South,180,5.0,6.0,0,0.00,,,0.02,meteohub,2013-04-11 14:29:00,
2013-04-11 10:30:00,68.7,68.7,30.08,SE,135,3.0,6.0,0,0.00,,,0.02,meteohub,2013-04-11 14:30:00,
2013-04-11 10:32:00,68.5,68.5,30.09,SE,135,7.0,7.0,0,0.00,,,0.02,meteohub,2013-04-11 14:32:00,
2013-04-11 10:34:00,68.4,68.4,30.08,South,180,3.0,6.0,0,0.00,,,0.02,meteohub,2013-04-11 14:34:00,
2013-04-11 10:37:00,68.4,68.4,30.08,South,180,5.0,7.0,0,0.00,,,0.02,meteohub,2013-04-11 14:37:00,
2013-04-11 10:38:00,68.4,68.4,30.08,South,180,6.0,7.0,0,0.00,,,0.02,meteohub,2013-04-11 14:38:00,
2013-04-11 10:39:00,68.4,68.4,30.08,WSW,248,5.0,7.0,0,0.00,,,0.02,meteohub,2013-04-11 14:39:00,
2013-04-11 10:40:00,68.4,68.4,30.08,WSW,248,5.0,7.0,0,0.00,,,0.02,meteohub,2013-04-11 14:40:00,
2013-04-11 10:43:00,68.4,68.4,30.09,SE,135,4.0,8.0,0,0.00,,,0.02,meteohub,2013-04-11 14:43:00,
2013-04-11 10:44:00,68.5,68.5,30.09,South,180,6.0,8.0,0,0.00,,,0.02,meteohub,2013-04-11 14:44:00,
2013-04-11 10:45:00,68.5,68.5,30.09,South,180,6.0,8.0,0,0.00,,,0.02,meteohub,2013-04-11 14:45:00,
2013-04-11 10:48:00,69.1,69.1,30.09,WSW,248,6.0,8.0,0,0.00,,,0.02,meteohub,2013-04-11 14:48:00,
2013-04-11 10:49:00,69.1,69.1,30.09,WSW,248,6.0,8.0,0,0.00,,,0.02,meteohub,2013-04-11 14:49:00,
2013-04-11 10:50:00,69.3,69.3,30.09,SE,135,4.0,8.0,0,0.00,,,0.02,meteohub,2013-04-11 14:50:00,
2013-04-11 10:51:00,69.3,69.3,30.09,South,180,5.0,8.0,0,0.00,,,0.02,meteohub,2013-04-11 14:51:00,
2013-04-11 10:54:00,69.4,69.4,30.08,South,180,4.0,8.0,0,0.00,,,0.02,meteohub,2013-04-11 14:54:00,
2013-04-11 10:56:00,69.6,69.6,30.09,West,270,7.0,8.0,0,0.00,,,0.02,meteohub,2013-04-11 14:56:00,
2013-04-11 11:00:00,69.3,69.3,30.08,SE,135,4.0,9.0,0,0.00,,,0.02,meteohub,2013-04-11 15:00:00,
2013-04-11 11:01:00,69.3,69.3,30.08,NW,315,2.0,9.0,0,0.00,,,0.02,meteohub,2013-04-11 15:01:00,
2013-04-11 11:02:00,69.3,69.3,30.09,WSW,248,3.0,9.0,0,0.00,,,0.02,meteohub,2013-04-11 15:02:00,
2013-04-11 11:03:00,69.4,69.4,30.08,West,270,6.0,9.0,0,0.00,,,0.02,meteohub,2013-04-11 15:03:00,
2013-04-11 11:06:00,69.6,69.6,30.08,SSE,158,7.0,9.0,0,0.00,,,0.02,meteohub,2013-04-11 15:06:00,
2013-04-11 11:07:00,69.6,69.6,30.08,South,180,9.0,9.0,0,0.00,,,0.02,meteohub,2013-04-11 15:07:00,
2013-04-11 11:08:00,69.6,69.6,30.08,South,180,10.0,10.0,0,0.00,,,0.02,meteohub,2013-04-11 15:08:00,
2013-04-11 11:11:00,69.4,69.4,30.09,East,90,4.0,10.0,0,0.00,,,0.02,meteohub,2013-04-11 15:11:00,
2013-04-11 11:12:00,69.6,69.6,30.08,SE,135,4.0,10.0,0,0.00,,,0.02,meteohub,2013-04-11 15:12:00,
2013-04-11 11:13:00,69.6,69.6,30.08,SE,135,4.0,10.0,0,0.00,,,0.02,meteohub,2013-04-11 15:13:00,
2013-04-11 11:17:00,70.2,70.2,30.08,South,180,8.0,10.0,0,0.00,,,0.02,meteohub,2013-04-11 15:17:00,
2013-04-11 11:18:00,70.3,70.3,30.08,WSW,248,4.0,10.0,0,0.00,,,0.02,meteohub,2013-04-11 15:18:00,
2013-04-11 11:19:00,70.3,70.3,30.08,NW,315,7.0,10.0,0,0.00,,,0.02,meteohub,2013-04-11 15:19:00,
2013-04-11 11:23:00,70.0,70.0,30.08,WSW,248,8.0,10.0,0,0.00,,,0.02,meteohub,2013-04-11 15:23:00,
2013-04-11 11:24:00,69.8,69.8,30.08,SE,135,5.0,10.0,0,0.00,,,0.02,meteohub,2013-04-11 15:24:00,
2013-04-11 11:25:00,69.8,69.8,30.08,West,270,5.0,10.0,0,0.00,,,0.02,meteohub,2013-04-11 15:25:00,
2013-04-11 11:28:00,69.6,69.6,30.08,WSW,248,8.0,8.0,0,0.00,,,0.02,meteohub,2013-04-11 15:28:00,
2013-04-11 11:29:00,69.6,69.6,30.09,WSW,248,4.0,8.0,0,0.00,,,0.02,meteohub,2013-04-11 15:29:00,
2013-04-11 11:30:00,69.6,69.6,30.09,WSW,248,4.0,8.0,0,0.00,,,0.02,meteohub,2013-04-11 15:30:00,
2013-04-11 11:31:00,69.6,69.6,30.08,WSW,248,4.0,8.0,0,0.00,,,0.02,meteohub,2013-04-11 15:31:00,
2013-04-11 11:34:00,69.4,69.4,30.09,WSW,248,3.0,8.0,0,0.00,,,0.02,meteohub,2013-04-11 15:34:00,
2013-04-11 11:36:00,69.4,69.4,30.09,South,180,2.0,8.0,0,0.00,,,0.02,meteohub,2013-04-11 15:36:00,
2013-04-11 11:37:00,69.6,69.6,30.08,South,180,3.0,8.0,0,0.00,,,0.02,meteohub,2013-04-11 15:37:00,
2013-04-11 11:39:00,69.8,69.8,30.08,South,180,4.0,8.0,0,0.00,,,0.02,meteohub,2013-04-11 15:39:00,
2013-04-11 11:40:00,69.8,69.8,30.09,South,180,5.0,8.0,0,0.00,,,0.02,meteohub,2013-04-11 15:40:00,
2013-04-11 11:42:00,70.0,70.0,30.08,WSW,248,5.0,8.0,0,0.00,,,0.02,meteohub,2013-04-11 15:42:00,
2013-04-11 11:44:00,70.0,70.0,30.08,SSE,158,4.0,8.0,0,0.00,,,0.02,meteohub,2013-04-11 15:44:00,
2013-04-11 11:45:00,70.0,70.0,30.08,SSE,158,4.0,8.0,0,0.00,,,0.02,meteohub,2013-04-11 15:45:00,
2013-04-11 11:48:00,70.2,70.2,30.08,West,270,4.0,8.0,0,0.00,,,0.02,meteohub,2013-04-11 15:48:00,
2013-04-11 11:49:00,70.2,70.2,30.08,South,180,4.0,8.0,0,0.00,,,0.02,meteohub,2013-04-11 15:49:00,
2013-04-11 11:50:00,70.3,70.3,30.09,West,270,5.0,8.0,0,0.00,,,0.02,meteohub,2013-04-11 15:50:00,
2013-04-11 11:54:00,70.5,70.5,30.08,South,180,4.0,8.0,0,0.00,,,0.02,meteohub,2013-04-11 15:54:00,
2013-04-11 11:55:00,70.5,70.5,30.08,West,270,3.0,8.0,0,0.00,,,0.02,meteohub,2013-04-11 15:55:00,
2013-04-11 12:00:00,70.7,70.7,30.09,WSW,248,4.0,8.0,0,0.00,,,0.02,meteohub,2013-04-11 16:00:00,
2013-04-11 12:01:00,70.7,70.7,30.09,WSW,248,8.0,8.0,0,0.00,,,0.02,meteohub,2013-04-11 16:01:00,
2013-04-11 12:06:00,70.5,70.5,30.09,West,270,8.0,8.0,0,0.00,,,0.02,meteohub,2013-04-11 16:06:00,
2013-04-11 12:07:00,70.7,70.7,30.08,West,270,4.0,8.0,0,0.00,,,0.02,meteohub,2013-04-11 16:07:00,
2013-04-11 12:08:00,70.7,70.7,30.08,West,270,4.0,8.0,0,0.00,,,0.02,meteohub,2013-04-11 16:08:00,
2013-04-11 12:12:00,71.1,71.1,30.08,WSW,248,5.0,9.0,0,0.00,,,0.02,meteohub,2013-04-11 16:12:00,
2013-04-11 12:17:00,71.6,71.6,30.07,WSW,248,10.0,10.0,0,0.00,,,0.02,meteohub,2013-04-11 16:17:00,
2013-04-11 12:18:00,72.1,72.1,30.07,West,270,8.0,9.0,0,0.00,,,0.02,meteohub,2013-04-11 16:18:00,
2013-04-11 12:22:00,72.3,72.3,30.07,NW,315,5.0,11.0,0,0.00,,,0.02,meteohub,2013-04-11 16:22:00,
2013-04-11 12:23:00,72.3,72.3,30.07,West,270,8.0,11.0,0,0.00,,,0.02,meteohub,2013-04-11 16:23:00,
2013-04-11 12:24:00,72.5,72.5,30.07,West,270,12.0,12.0,0,0.00,,,0.02,meteohub,2013-04-11 16:24:00,
2013-04-11 12:27:00,72.5,72.5,30.07,WSW,248,12.0,14.0,0,0.00,,,0.02,meteohub,2013-04-11 16:27:00,
2013-04-11 12:28:00,72.5,72.5,30.07,WSW,248,12.0,14.0,0,0.00,,,0.02,meteohub,2013-04-11 16:28:00,
2013-04-11 12:29:00,72.3,72.3,30.07,NW,315,7.0,14.0,0,0.00,,,0.02,meteohub,2013-04-11 16:29:00,
2013-04-11 12:33:00,72.5,72.5,30.07,WSW,248,8.0,14.0,0,0.00,,,0.02,meteohub,2013-04-11 16:33:00,
2013-04-11 12:35:00,72.3,72.3,30.07,WSW,248,8.0,14.0,0,0.00,,,0.02,meteohub,2013-04-11 16:35:00,
2013-04-11 12:38:00,72.1,72.1,30.06,WSW,248,7.0,14.0,0,0.00,,,0.02,meteohub,2013-04-11 16:38:00,
2013-04-11 12:39:00,72.3,72.3,30.06,South,180,6.0,14.0,0,0.00,,,0.02,meteohub,2013-04-11 16:39:00,
2013-04-11 12:40:00,72.3,72.3,30.06,WSW,248,11.0,12.0,0,0.00,,,0.02,meteohub,2013-04-11 16:40:00,
2013-04-11 12:43:00,72.5,72.5,30.06,WSW,248,6.0,12.0,0,0.00,,,0.02,meteohub,2013-04-11 16:43:00,
2013-04-11 12:44:00,72.7,72.7,30.06,WSW,248,6.0,12.0,0,0.00,,,0.02,meteohub,2013-04-11 16:44:00,
2013-04-11 12:45:00,72.7,72.7,30.06,WSW,248,8.0,12.0,0,0.00,,,0.02,meteohub,2013-04-11 16:45:00,
2013-04-11 12:48:00,72.7,72.7,30.06,WSW,248,7.0,12.0,0,0.00,,,0.02,meteohub,2013-04-11 16:48:00,
2013-04-11 12:49:00,72.7,72.7,30.06,WSW,248,13.0,13.0,0,0.00,,,0.02,meteohub,2013-04-11 16:49:00,
2013-04-11 12:50:00,72.5,72.5,30.06,WSW,248,11.0,13.0,0,0.00,,,0.02,meteohub,2013-04-11 16:50:00,
2013-04-11 12:51:00,72.5,72.5,30.06,West,270,6.0,13.0,0,0.00,,,0.02,meteohub,2013-04-11 16:51:00,
2013-04-11 12:54:00,72.3,72.3,30.06,WSW,248,7.0,13.0,0,0.00,,,0.02,meteohub,2013-04-11 16:54:00,
2013-04-11 12:55:00,72.1,72.1,30.06,West,270,6.0,13.0,0,0.00,,,0.02,meteohub,2013-04-11 16:55:00,
2013-04-11 12:56:00,72.3,72.3,30.06,West,270,7.0,13.0,0,0.00,,,0.02,meteohub,2013-04-11 16:56:00,
2013-04-11 12:58:00,72.1,72.1,30.06,North,0,5.0,13.0,0,0.00,,,0.02,meteohub,2013-04-11 16:58:00,
2013-04-11 13:00:00,72.1,72.1,30.06,West,270,8.0,13.0,0,0.00,,,0.02,meteohub,2013-04-11 17:00:00,
2013-04-11 13:01:00,72.1,72.1,30.06,West,270,8.0,13.0,0,0.00,,,0.02,meteohub,2013-04-11 17:01:00,
2013-04-11 13:03:00,72.0,72.0,30.06,SE,135,8.0,13.0,0,0.00,,,0.02,meteohub,2013-04-11 17:03:00,
2013-04-11 13:05:00,72.0,72.0,30.06,South,180,8.0,11.0,0,0.00,,,0.02,meteohub,2013-04-11 17:05:00,
2013-04-11 13:07:00,72.0,72.0,30.06,WSW,248,5.0,11.0,0,0.00,,,0.02,meteohub,2013-04-11 17:07:00,
2013-04-11 13:09:00,72.0,72.0,30.06,South,180,4.0,11.0,0,0.00,,,0.02,meteohub,2013-04-11 17:09:00,
2013-04-11 13:11:00,72.1,72.1,30.06,North,0,10.0,10.0,0,0.00,,,0.02,meteohub,2013-04-11 17:11:00,
2013-04-11 13:12:00,72.1,72.1,30.06,WSW,248,10.0,10.0,0,0.00,,,0.02,meteohub,2013-04-11 17:12:00,
2013-04-11 13:13:00,72.1,72.1,30.06,WSW,248,11.0,11.0,0,0.00,,,0.02,meteohub,2013-04-11 17:13:00,
2013-04-11 13:14:00,72.0,72.0,30.06,WSW,248,9.0,9.0,0,0.00,,,0.02,meteohub,2013-04-11 17:14:00,
2013-04-11 13:17:00,72.1,72.1,30.06,WSW,248,4.0,11.0,0,0.00,,,0.02,meteohub,2013-04-11 17:17:00,
2013-04-11 13:18:00,72.1,72.1,30.06,WSW,248,4.0,11.0,0,0.00,,,0.02,meteohub,2013-04-11 17:18:00,
2013-04-11 13:19:00,72.1,72.1,30.06,WSW,248,4.0,11.0,0,0.00,,,0.02,meteohub,2013-04-11 17:19:00,
2013-04-11 13:20:00,72.1,72.1,30.06,WSW,248,4.0,11.0,0,0.00,,,0.02,meteohub,2013-04-11 17:20:00,
2013-04-11 13:22:00,72.7,72.7,30.06,WSW,248,9.0,11.0,0,0.00,,,0.02,meteohub,2013-04-11 17:22:00,
2013-04-11 13:23:00,72.7,72.7,30.06,WSW,248,9.0,11.0,0,0.00,,,0.02,meteohub,2013-04-11 17:23:00,
2013-04-11 13:24:00,72.9,72.9,30.06,WSW,248,10.0,11.0,0,0.00,,,0.02,meteohub,2013-04-11 17:24:00,
2013-04-11 13:25:00,72.9,72.9,30.06,WSW,248,10.0,11.0,0,0.00,,,0.02,meteohub,2013-04-11 17:25:00,
2013-04-11 13:29:00,72.5,72.5,30.06,WSW,248,6.0,11.0,0,0.00,,,0.02,meteohub,2013-04-11 17:29:00,
2013-04-11 13:31:00,72.5,72.5,30.06,South,180,11.0,15.0,0,0.00,,,0.02,meteohub,2013-04-11 17:31:00,
2013-04-11 13:34:00,72.7,72.7,30.05,NW,315,8.0,15.0,0,0.00,,,0.02,meteohub,2013-04-11 17:34:00,
2013-04-11 13:35:00,72.7,72.7,30.06,South,180,6.0,15.0,0,0.00,,,0.02,meteohub,2013-04-11 17:35:00,
2013-04-11 13:36:00,72.9,72.9,30.05,South,180,8.0,15.0,0,0.00,,,0.02,meteohub,2013-04-11 17:36:00,
2013-04-11 13:37:00,72.9,72.9,30.05,WSW,248,8.0,15.0,0,0.00,,,0.02,meteohub,2013-04-11 17:37:00,
2013-04-11 13:39:00,73.4,73.4,30.05,WSW,248,7.0,15.0,0,0.00,,,0.02,meteohub,2013-04-11 17:39:00,
2013-04-11 13:40:00,73.6,73.6,30.05,WSW,248,7.0,15.0,0,0.00,,,0.02,meteohub,2013-04-11 17:40:00,
2013-04-11 13:41:00,73.6,73.6,30.05,South,180,8.0,15.0,0,0.00,,,0.02,meteohub,2013-04-11 17:41:00,
2013-04-11 13:42:00,73.6,73.6,30.05,WSW,248,6.0,15.0,0,0.00,,,0.02,meteohub,2013-04-11 17:42:00,
2013-04-11 13:45:00,73.6,73.6,30.05,NW,315,14.0,15.0,0,0.00,,,0.02,meteohub,2013-04-11 17:45:00,
2013-04-11 13:46:00,73.4,73.4,30.05,WSW,248,4.0,14.0,0,0.00,,,0.02,meteohub,2013-04-11 17:46:00,
2013-04-11 13:49:00,73.9,73.9,30.05,NW,315,6.0,14.0,0,0.00,,,0.02,meteohub,2013-04-11 17:49:00,
2013-04-11 13:52:00,74.5,74.5,30.05,South,180,4.0,14.0,0,0.00,,,0.02,meteohub,2013-04-11 17:52:00,
2013-04-11 13:53:00,74.7,74.7,30.05,WSW,248,10.0,14.0,0,0.00,,,0.02,meteohub,2013-04-11 17:53:00,
2013-04-11 13:55:00,74.8,74.8,30.05,WSW,248,7.0,14.0,0,0.00,,,0.02,meteohub,2013-04-11 17:55:00,
2013-04-11 13:57:00,74.5,74.5,30.06,South,180,9.0,14.0,0,0.00,,,0.02,meteohub,2013-04-11 17:57:00,
2013-04-11 13:58:00,74.3,74.3,30.05,North,0,10.0,14.0,0,0.00,,,0.02,meteohub,2013-04-11 17:58:00,
2013-04-11 14:00:00,73.9,73.9,30.05,WSW,248,8.0,12.0,0,0.00,,,0.02,meteohub,2013-04-11 18:00:00,
2013-04-11 14:02:00,73.9,73.9,30.06,West,270,5.0,12.0,0,0.00,,,0.02,meteohub,2013-04-11 18:02:00,
2013-04-11 14:05:00,73.8,73.8,30.05,WSW,248,4.0,12.0,0,0.00,,,0.02,meteohub,2013-04-11 18:05:00,
2013-04-11 14:07:00,73.9,73.9,30.05,WSW,248,10.0,12.0,0,0.00,,,0.02,meteohub,2013-04-11 18:07:00,
2013-04-11 14:09:00,73.8,73.8,30.06,WSW,248,9.0,12.0,0,0.00,,,0.02,meteohub,2013-04-11 18:09:00,
2013-04-11 14:11:00,73.8,73.8,30.05,West,270,8.0,12.0,0,0.00,,,0.02,meteohub,2013-04-11 18:11:00,
2013-04-11 14:13:00,73.8,73.8,30.06,WSW,248,5.0,12.0,0,0.00,,,0.02,meteohub,2013-04-11 18:13:00,
2013-04-11 14:14:00,73.8,73.8,30.05,WSW,248,7.0,12.0,0,0.00,,,0.02,meteohub,2013-04-11 18:14:00,
2013-04-11 14:16:00,73.8,73.8,30.05,South,180,8.0,14.0,0,0.00,,,0.02,meteohub,2013-04-11 18:16:00,
2013-04-11 14:18:00,73.8,73.8,30.05,South,180,8.0,14.0,0,0.00,,,0.02,meteohub,2013-04-11 18:18:00,
2013-04-11 14:19:00,73.8,73.8,30.05,South,180,8.0,14.0,0,0.00,,,0.02,meteohub,2013-04-11 18:19:00,
2013-04-11 14:20:00,73.8,73.8,30.05,South,180,8.0,14.0,0,0.00,,,0.02,meteohub,2013-04-11 18:20:00,
2013-04-11 14:21:00,73.9,73.9,30.05,West,270,8.0,14.0,0,0.00,,,0.02,meteohub,2013-04-11 18:21:00,
2013-04-11 14:24:00,73.8,73.8,30.05,WSW,248,6.0,14.0,0,0.00,,,0.02,meteohub,2013-04-11 18:24:00,
2013-04-11 14:25:00,73.8,73.8,30.05,SE,135,4.0,10.0,0,0.00,,,0.02,meteohub,2013-04-11 18:25:00,
2013-04-11 14:26:00,73.8,73.8,30.05,NW,315,5.0,10.0,0,0.00,,,0.02,meteohub,2013-04-11 18:26:00,
2013-04-11 14:27:00,73.8,73.8,30.05,WSW,248,9.0,10.0,0,0.00,,,0.02,meteohub,2013-04-11 18:27:00,
2013-04-11 14:29:00,73.8,73.8,30.05,South,180,4.0,10.0,0,0.00,,,0.02,meteohub,2013-04-11 18:29:00,
2013-04-11 14:31:00,73.9,73.9,30.05,West,270,5.0,10.0,0,0.00,,,0.02,meteohub,2013-04-11 18:31:00,
2013-04-11 14:32:00,73.9,73.9,30.05,West,270,6.0,10.0,0,0.00,,,0.02,meteohub,2013-04-11 18:32:00,
2013-04-11 14:35:00,73.9,73.9,30.05,South,180,11.0,11.0,0,0.00,,,0.02,meteohub,2013-04-11 18:35:00,
2013-04-11 14:37:00,73.8,73.8,30.05,NW,315,10.0,11.0,0,0.00,,,0.02,meteohub,2013-04-11 18:37:00,
2013-04-11 14:38:00,73.8,73.8,30.05,West,270,4.0,11.0,0,0.00,,,0.02,meteohub,2013-04-11 18:38:00,
2013-04-11 14:42:00,74.1,74.1,30.05,NW,315,6.0,11.0,0,0.00,,,0.02,meteohub,2013-04-11 18:42:00,
2013-04-11 14:43:00,74.5,74.5,30.05,West,270,5.0,11.0,0,0.00,,,0.02,meteohub,2013-04-11 18:43:00,
2013-04-11 14:48:00,74.7,74.7,30.04,SE,135,4.0,11.0,0,0.00,,,0.02,meteohub,2013-04-11 18:48:00,
2013-04-11 14:50:00,74.7,74.7,30.05,West,270,3.0,11.0,0,0.00,,,0.02,meteohub,2013-04-11 18:50:00,
2013-04-11 14:53:00,75.0,75.0,30.05,West,270,8.0,11.0,0,0.00,,,0.02,meteohub,2013-04-11 18:53:00,
2013-04-11 14:55:00,74.7,74.7,30.04,West,270,10.0,11.0,0,0.00,,,0.02,meteohub,2013-04-11 18:55:00,
2013-04-11 14:56:00,74.5,74.5,30.04,West,270,11.0,11.0,0,0.00,,,0.02,meteohub,2013-04-11 18:56:00,
2013-04-11 14:58:00,74.3,74.3,30.04,NW,315,7.0,11.0,0,0.00,,,0.02,meteohub,2013-04-11 18:58:00,
2013-04-11 14:59:00,74.5,74.5,30.04,West,270,5.0,11.0,0,0.00,,,0.02,meteohub,2013-04-11 18:59:00,
2013-04-11 15:01:00,74.7,74.7,30.04,SE,135,5.0,11.0,0,0.00,,,0.02,meteohub,2013-04-11 19:01:00,
2013-04-11 15:03:00,74.8,74.8,30.04,North,0,9.0,11.0,0,0.00,,,0.02,meteohub,2013-04-11 19:03:00,
2013-04-11 15:04:00,74.8,74.8,30.04,NW,315,6.0,11.0,0,0.00,,,0.02,meteohub,2013-04-11 19:04:00,
2013-04-11 15:05:00,74.8,74.8,30.04,North,0,7.0,11.0,0,0.00,,,0.02,meteohub,2013-04-11 19:05:00,
2013-04-11 15:07:00,74.5,74.5,30.04,West,270,8.0,11.0,0,0.00,,,0.02,meteohub,2013-04-11 19:07:00,
2013-04-11 15:09:00,74.1,74.1,30.04,West,270,3.0,11.0,0,0.00,,,0.02,meteohub,2013-04-11 19:09:00,
2013-04-11 15:10:00,73.9,73.9,30.04,West,270,4.0,11.0,0,0.00,,,0.02,meteohub,2013-04-11 19:10:00,
2013-04-11 15:12:00,73.9,73.9,30.04,North,0,3.0,11.0,0,0.00,,,0.02,meteohub,2013-04-11 19:12:00,
2013-04-11 15:14:00,73.9,73.9,30.04,NW,315,5.0,11.0,0,0.00,,,0.02,meteohub,2013-04-11 19:14:00,
2013-04-11 15:16:00,73.9,73.9,30.04,WSW,248,7.0,10.0,0,0.00,,,0.02,meteohub,2013-04-11 19:16:00,
2013-04-11 15:17:00,73.9,73.9,30.04,WSW,248,7.0,10.0,0,0.00,,,0.02,meteohub,2013-04-11 19:17:00,
2013-04-11 15:18:00,73.9,73.9,30.04,WSW,248,7.0,10.0,0,0.00,,,0.02,meteohub,2013-04-11 19:18:00,
2013-04-11 15:19:00,73.9,73.9,30.04,WSW,248,7.0,10.0,0,0.00,,,0.02,meteohub,2013-04-11 19:19:00,
2013-04-11 15:22:00,73.8,73.8,30.03,West,270,3.0,8.0,0,0.00,,,0.02,meteohub,2013-04-11 19:22:00,
2013-04-11 15:23:00,73.8,73.8,30.04,NW,315,7.0,8.0,0,0.00,,,0.02,meteohub,2013-04-11 19:23:00,
2013-04-11 15:24:00,73.8,73.8,30.03,NW,315,7.0,8.0,0,0.00,,,0.02,meteohub,2013-04-11 19:24:00,
2013-04-11 15:28:00,73.8,73.8,30.03,WSW,248,2.0,7.0,0,0.00,,,0.02,meteohub,2013-04-11 19:28:00,
2013-04-11 15:29:00,73.9,73.9,30.03,WSW,248,2.0,7.0,0,0.00,,,0.02,meteohub,2013-04-11 19:29:00,
2013-04-11 15:30:00,74.3,74.3,30.02,WSW,248,2.0,7.0,0,0.00,,,0.02,meteohub,2013-04-11 19:30:00,
2013-04-11 15:33:00,74.7,74.7,30.03,West,270,4.0,7.0,0,0.00,,,0.02,meteohub,2013-04-11 19:33:00,
2013-04-11 15:34:00,74.7,74.7,30.02,West,270,4.0,7.0,0,0.00,,,0.02,meteohub,2013-04-11 19:34:00,
2013-04-11 15:35:00,74.5,74.5,30.02,West,270,5.0,7.0,0,0.00,,,0.02,meteohub,2013-04-11 19:35:00,
2013-04-11 15:39:00,74.5,74.5,30.02,NW,315,2.0,7.0,0,0.00,,,0.02,meteohub,2013-04-11 19:39:00,
2013-04-11 15:40:00,74.5,74.5,30.02,West,270,2.0,7.0,0,0.00,,,0.02,meteohub,2013-04-11 19:40:00,
2013-04-11 15:41:00,74.5,74.5,30.02,WSW,248,2.0,5.0,0,0.00,,,0.02,meteohub,2013-04-11 19:41:00,
2013-04-11 15:44:00,74.5,74.5,30.02,West,270,3.0,5.0,0,0.00,,,0.02,meteohub,2013-04-11 19:44:00,
2013-04-11 15:46:00,74.5,74.5,30.01,WSW,248,2.0,5.0,0,0.00,,,0.02,meteohub,2013-04-11 19:46:00,
2013-04-11 15:49:00,74.1,74.1,30.01,WSW,248,4.0,5.0,0,0.00,,,0.02,meteohub,2013-04-11 19:49:00,
2013-04-11 15:50:00,74.1,74.1,30.01,WSW,248,4.0,5.0,0,0.00,,,0.02,meteohub,2013-04-11 19:50:00,
2013-04-11 15:51:00,73.9,73.9,30.01,SE,135,4.0,5.0,0,0.00,,,0.02,meteohub,2013-04-11 19:51:00,
2013-04-11 15:52:00,73.9,73.9,30.01,SE,135,4.0,5.0,0,0.00,,,0.02,meteohub,2013-04-11 19:52:00,
2013-04-11 15:55:00,73.9,73.9,30.01,SE,135,5.0,5.0,0,0.00,,,0.02,meteohub,2013-04-11 19:55:00,
2013-04-11 15:56:00,73.9,73.9,30.01,South,180,4.0,7.0,0,0.00,,,0.02,meteohub,2013-04-11 19:56:00,
2013-04-11 15:58:00,73.8,73.8,30.00,WSW,248,8.0,8.0,0,0.00,,,0.02,meteohub,2013-04-11 19:58:00,
2013-04-11 16:00:00,73.6,73.6,30.01,South,180,4.0,8.0,0,0.00,,,0.02,meteohub,2013-04-11 20:00:00,
2013-04-11 16:02:00,73.6,73.6,30.01,South,180,5.0,8.0,0,0.00,,,0.02,meteohub,2013-04-11 20:02:00,
2013-04-11 16:03:00,73.6,73.6,30.00,WSW,248,3.0,8.0,0,0.00,,,0.02,meteohub,2013-04-11 20:03:00,
2013-04-11 16:04:00,73.6,73.6,30.00,South,180,4.0,8.0,0,0.00,,,0.02,meteohub,2013-04-11 20:04:00,
2013-04-11 16:07:00,73.6,73.6,30.01,WSW,248,6.0,8.0,0,0.00,,,0.02,meteohub,2013-04-11 20:07:00,
2013-04-11 16:08:00,73.6,73.6,30.01,South,180,5.0,8.0,0,0.00,,,0.02,meteohub,2013-04-11 20:08:00,
2013-04-11 16:11:00,73.6,73.6,30.01,West,270,2.0,8.0,0,0.00,,,0.02,meteohub,2013-04-11 20:11:00,
2013-04-11 16:12:00,73.6,73.6,30.01,WSW,248,1.0,8.0,0,0.00,,,0.02,meteohub,2013-04-11 20:12:00,
2013-04-11 16:14:00,73.8,73.8,30.01,North,0,1.0,8.0,0,0.00,,,0.02,meteohub,2013-04-11 20:14:00,
2013-04-11 16:17:00,74.1,74.1,30.00,NW,315,3.0,8.0,0,0.00,,,0.02,meteohub,2013-04-11 20:17:00,
2013-04-11 16:19:00,74.1,74.1,30.00,SE,135,2.0,8.0,0,0.00,,,0.02,meteohub,2013-04-11 20:19:00,
2013-04-11 16:20:00,74.1,74.1,30.00,SE,135,1.0,8.0,0,0.00,,,0.02,meteohub,2013-04-11 20:20:00,
2013-04-11 16:23:00,73.9,73.9,30.00,WSW,248,4.0,8.0,0,0.00,,,0.02,meteohub,2013-04-11 20:23:00,
2013-04-11 16:25:00,73.9,73.9,30.00,West,270,3.0,8.0,0,0.00,,,0.02,meteohub,2013-04-11 20:25:00,
2013-04-11 16:28:00,73.8,73.8,30.00,NE,45,3.0,5.0,0,0.00,,,0.02,meteohub,2013-04-11 20:28:00,
2013-04-11 16:30:00,73.8,73.8,29.99,West,270,2.0,5.0,0,0.00,,,0.02,meteohub,2013-04-11 20:30:00,
2013-04-11 16:32:00,73.8,73.8,29.99,WSW,248,2.0,5.0,0,0.00,,,0.02,meteohub,2013-04-11 20:32:00,
2013-04-11 16:33:00,73.8,73.8,29.99,NW,315,3.0,5.0,0,0.00,,,0.02,meteohub,2013-04-11 20:33:00,
2013-04-11 16:35:00,73.8,73.8,29.99,West,270,5.0,5.0,0,0.00,,,0.02,meteohub,2013-04-11 20:35:00,
2013-04-11 16:36:00,73.8,73.8,30.00,WSW,248,4.0,5.0,0,0.00,,,0.02,meteohub,2013-04-11 20:36:00,
2013-04-11 16:37:00,73.6,73.6,30.00,South,180,2.0,5.0,0,0.00,,,0.02,meteohub,2013-04-11 20:37:00,
2013-04-11 16:39:00,73.4,73.4,29.99,South,180,2.0,5.0,0,0.00,,,0.02,meteohub,2013-04-11 20:39:00,
2013-04-11 16:42:00,73.4,73.4,30.00,West,270,2.0,5.0,0,0.00,,,0.02,meteohub,2013-04-11 20:42:00,
2013-04-11 16:45:00,73.6,73.6,30.00,NE,45,3.0,5.0,0,0.00,,,0.02,meteohub,2013-04-11 20:45:00,
2013-04-11 16:47:00,73.8,73.8,29.99,WSW,248,2.0,5.0,0,0.00,,,0.02,meteohub,2013-04-11 20:47:00,
2013-04-11 16:48:00,73.8,73.8,29.99,West,270,2.0,5.0,0,0.00,,,0.02,meteohub,2013-04-11 20:48:00,
2013-04-11 16:52:00,73.6,73.6,29.99,WSW,248,2.0,5.0,0,0.00,,,0.02,meteohub,2013-04-11 20:52:00,
2013-04-11 16:53:00,73.6,73.6,29.99,ESE,113,0.0,5.0,0,0.00,,,0.02,meteohub,2013-04-11 20:53:00,
2013-04-11 16:54:00,73.6,73.6,29.99,East,90,2.0,5.0,0,0.00,,,0.02,meteohub,2013-04-11 20:54:00,
2013-04-11 16:57:00,73.4,73.4,29.99,NW,315,1.0,3.0,0,0.00,,,0.02,meteohub,2013-04-11 20:57:00,
2013-04-11 16:58:00,73.6,73.6,29.99,North,0,1.0,3.0,0,0.00,,,0.02,meteohub,2013-04-11 20:58:00,
2013-04-11 16:59:00,73.6,73.6,29.99,North,0,0.0,3.0,0,0.00,,,0.02,meteohub,2013-04-11 20:59:00,
2013-04-11 17:00:00,73.6,73.6,29.99,North,0,0.0,3.0,0,0.00,,,0.02,meteohub,2013-04-11 21:00:00,
2013-04-11 17:04:00,73.8,73.8,29.99,North,0,1.0,3.0,0,0.00,,,0.02,meteohub,2013-04-11 21:04:00,
2013-04-11 17:05:00,73.8,73.8,29.99,WSW,248,2.0,2.0,0,0.00,,,0.02,meteohub,2013-04-11 21:05:00,
2013-04-11 17:09:00,73.6,73.6,29.99,South,180,1.0,2.0,0,0.00,,,0.02,meteohub,2013-04-11 21:09:00,
2013-04-11 17:10:00,73.6,73.6,29.99,South,180,1.0,2.0,0,0.00,,,0.02,meteohub,2013-04-11 21:10:00,
2013-04-11 17:12:00,73.6,73.6,29.99,WSW,248,0.0,2.0,0,0.00,,,0.02,meteohub,2013-04-11 21:12:00,
2013-04-11 17:15:00,73.6,73.6,29.99,WSW,248,2.0,2.0,0,0.00,,,0.02,meteohub,2013-04-11 21:15:00,
2013-04-11 17:17:00,73.4,73.4,29.99,WSW,248,2.0,2.0,0,0.00,,,0.02,meteohub,2013-04-11 21:17:00,
2013-04-11 17:18:00,73.4,73.4,29.99,WSW,248,1.0,2.0,0,0.00,,,0.02,meteohub,2013-04-11 21:18:00,
2013-04-11 17:20:00,73.2,73.2,29.99,South,180,2.0,2.0,0,0.00,,,0.02,meteohub,2013-04-11 21:20:00,
2013-04-11 17:21:00,73.2,73.2,29.99,South,180,1.0,2.0,0,0.00,,,0.02,meteohub,2013-04-11 21:21:00,
2013-04-11 17:22:00,73.2,73.2,29.99,WSW,248,1.0,2.0,0,0.00,,,0.02,meteohub,2013-04-11 21:22:00,
2013-04-11 17:23:00,73.2,73.2,29.99,NW,315,2.0,2.0,0,0.00,,,0.02,meteohub,2013-04-11 21:23:00,
2013-04-11 17:25:00,73.0,73.0,29.98,NW,315,2.0,3.0,0,0.00,,,0.02,meteohub,2013-04-11 21:25:00,
2013-04-11 17:27:00,73.0,73.0,29.98,NW,315,2.0,3.0,0,0.00,,,0.02,meteohub,2013-04-11 21:27:00,
2013-04-11 17:28:00,73.0,73.0,29.98,North,0,2.0,3.0,0,0.00,,,0.02,meteohub,2013-04-11 21:28:00,
2013-04-11 17:30:00,73.0,73.0,29.98,NW,315,2.0,3.0,0,0.00,,,0.02,meteohub,2013-04-11 21:30:00,
2013-04-11 17:32:00,72.9,72.9,29.98,North,0,2.0,3.0,0,0.00,,,0.02,meteohub,2013-04-11 21:32:00,
2013-04-11 17:34:00,72.9,72.9,29.99,NW,315,2.0,3.0,0,0.00,,,0.02,meteohub,2013-04-11 21:34:00,
2013-04-11 17:36:00,72.5,72.5,29.98,NE,45,6.0,6.0,0,0.00,,,0.02,meteohub,2013-04-11 21:36:00,
2013-04-11 17:37:00,72.5,72.5,29.98,North,0,5.0,5.0,0,0.00,,,0.02,meteohub,2013-04-11 21:37:00,
2013-04-11 17:39:00,72.1,72.1,29.98,North,0,4.0,4.0,0,0.00,,,0.02,meteohub,2013-04-11 21:39:00,
2013-04-11 17:42:00,71.6,71.6,29.99,North,0,8.0,8.0,0,0.00,,,0.02,meteohub,2013-04-11 21:42:00,
2013-04-11 17:45:00,70.9,70.9,29.99,North,0,6.0,8.0,0,0.00,,,0.02,meteohub,2013-04-11 21:45:00,
2013-04-11 17:47:00,70.5,70.5,29.99,North,0,6.0,8.0,0,0.00,,,0.02,meteohub,2013-04-11 21:47:00,
2013-04-11 17:48:00,70.3,70.3,29.98,North,0,8.0,8.0,0,0.00,,,0.02,meteohub,2013-04-11 21:48:00,
2013-04-11 17:49:00,70.3,70.3,29.99,North,0,6.0,8.0,0,0.00,,,0.02,meteohub,2013-04-11 21:49:00,
2013-04-11 17:50:00,70.2,70.2,29.99,North,0,5.0,8.0,0,0.00,,,0.02,meteohub,2013-04-11 21:50:00,
2013-04-11 17:53:00,70.2,70.2,29.99,NE,45,8.0,8.0,0,0.00,,,0.02,meteohub,2013-04-11 21:53:00,
2013-04-11 17:54:00,70.2,70.2,29.99,East,90,5.0,8.0,0,0.00,,,0.02,meteohub,2013-04-11 21:54:00,
2013-04-11 17:56:00,70.2,70.2,29.99,North,0,5.0,8.0,0,0.00,,,0.02,meteohub,2013-04-11 21:56:00,
2013-04-11 17:58:00,70.2,70.2,29.99,East,90,8.0,8.0,0,0.00,,,0.02,meteohub,2013-04-11 21:58:00,
2013-04-11 17:59:00,70.0,70.0,29.99,North,0,4.0,8.0,0,0.00,,,0.02,meteohub,2013-04-11 21:59:00,
2013-04-11 18:00:00,70.0,70.0,29.99,East,90,5.0,8.0,0,0.00,,,0.02,meteohub,2013-04-11 22:00:00,
2013-04-11 18:02:00,69.6,69.6,29.99,East,90,3.0,8.0,0,0.00,,,0.02,meteohub,2013-04-11 22:02:00,
2013-04-11 18:04:00,69.1,69.1,29.99,NE,45,8.0,8.0,0,0.00,,,0.02,meteohub,2013-04-11 22:04:00,
2013-04-11 18:07:00,68.5,68.5,29.99,NE,45,5.0,10.0,0,0.00,,,0.02,meteohub,2013-04-11 22:07:00,
2013-04-11 18:09:00,68.0,68.0,29.99,East,90,7.0,10.0,0,0.00,,,0.02,meteohub,2013-04-11 22:09:00,
2013-04-11 18:11:00,68.0,68.0,29.99,NE,45,8.0,10.0,0,0.00,,,0.02,meteohub,2013-04-11 22:11:00,
2013-04-11 18:13:00,67.6,67.6,29.99,East,90,10.0,10.0,0,0.00,,,0.02,meteohub,2013-04-11 22:13:00,
2013-04-11 18:14:00,67.5,67.5,29.99,NE,45,4.0,10.0,0,0.00,,,0.02,meteohub,2013-04-11 22:14:00,
2013-04-11 18:16:00,67.3,67.3,29.99,NE,45,4.0,10.0,0,0.00,,,0.02,meteohub,2013-04-11 22:16:00,
2013-04-11 18:18:00,67.1,67.1,29.99,ENE,68,5.0,10.0,0,0.00,,,0.02,meteohub,2013-04-11 22:18:00,
2013-04-11 18:19:00,66.7,66.7,29.99,East,90,9.0,10.0,0,0.00,,,0.02,meteohub,2013-04-11 22:19:00,
2013-04-11 18:20:00,66.7,66.7,29.99,NE,45,11.0,11.0,0,0.00,,,0.02,meteohub,2013-04-11 22:20:00,
2013-04-11 18:21:00,66.6,66.6,29.99,East,90,10.0,10.0,0,0.00,,,0.02,meteohub,2013-04-11 22:21:00,
2013-04-11 18:24:00,66.4,66.4,30.00,East,90,4.0,10.0,0,0.00,,,0.02,meteohub,2013-04-11 22:24:00,
2013-04-11 18:25:00,66.2,66.2,29.99,East,90,6.0,11.0,0,0.00,,,0.02,meteohub,2013-04-11 22:25:00,
2013-04-11 18:26:00,66.2,66.2,29.99,East,90,11.0,11.0,0,0.00,,,0.02,meteohub,2013-04-11 22:26:00,
2013-04-11 18:30:00,66.0,66.0,29.99,East,90,4.0,11.0,0,0.00,,,0.02,meteohub,2013-04-11 22:30:00,
2013-04-11 18:31:00,66.0,66.0,29.99,East,90,4.0,11.0,0,0.00,,,0.02,meteohub,2013-04-11 22:31:00,
2013-04-11 18:35:00,65.7,65.7,29.99,SE,135,8.0,11.0,0,0.00,,,0.02,meteohub,2013-04-11 22:35:00,
2013-04-11 18:36:00,65.5,65.5,29.99,East,90,6.0,11.0,0,0.00,,,0.02,meteohub,2013-04-11 22:36:00,
2013-04-11 18:37:00,65.5,65.5,29.99,East,90,7.0,11.0,0,0.00,,,0.02,meteohub,2013-04-11 22:37:00,
2013-04-11 18:40:00,65.3,65.3,29.99,East,90,11.0,11.0,0,0.00,,,0.02,meteohub,2013-04-11 22:40:00,
2013-04-11 18:41:00,65.1,65.1,29.99,NE,45,11.0,11.0,0,0.00,,,0.02,meteohub,2013-04-11 22:41:00,
2013-04-11 18:42:00,65.1,65.1,29.99,NE,45,11.0,11.0,0,0.00,,,0.02,meteohub,2013-04-11 22:42:00,
2013-04-11 18:46:00,64.8,64.8,29.99,East,90,7.0,11.0,0,0.00,,,0.02,meteohub,2013-04-11 22:46:00,
2013-04-11 18:47:00,64.4,64.4,29.99,East,90,14.0,14.0,0,0.00,,,0.02,meteohub,2013-04-11 22:47:00,
2013-04-11 18:48:00,64.2,64.2,29.99,East,90,8.0,11.0,0,0.00,,,0.02,meteohub,2013-04-11 22:48:00,
2013-04-11 18:52:00,63.7,63.7,29.99,East,90,9.0,14.0,0,0.00,,,0.02,meteohub,2013-04-11 22:52:00,
2013-04-11 18:53:00,63.3,63.3,29.99,East,90,10.0,14.0,0,0.00,,,0.02,meteohub,2013-04-11 22:53:00,
2013-04-11 18:58:00,62.8,62.8,29.99,East,90,7.0,14.0,0,0.00,,,0.02,meteohub,2013-04-11 22:58:00,
2013-04-11 18:59:00,62.6,62.6,29.99,SE,135,8.0,14.0,0,0.00,,,0.02,meteohub,2013-04-11 22:59:00,
2013-04-11 19:03:00,62.1,62.1,29.98,East,90,9.0,14.0,0,0.00,,,0.02,meteohub,2013-04-11 23:03:00,
2013-04-11 19:04:00,61.9,61.9,29.99,East,90,9.0,14.0,0,0.00,,,0.02,meteohub,2013-04-11 23:04:00,
2013-04-11 19:08:00,61.3,61.3,29.98,SE,135,11.0,12.0,0,0.00,,,0.02,meteohub,2013-04-11 23:08:00,
2013-04-11 19:09:00,61.3,61.3,29.98,SE,135,11.0,12.0,0,0.00,,,0.02,meteohub,2013-04-11 23:09:00,
2013-04-11 19:14:00,60.8,60.8,29.98,East,90,11.0,14.0,0,0.00,,,0.02,meteohub,2013-04-11 23:14:00,
2013-04-11 19:15:00,60.8,60.8,29.98,East,90,8.0,14.0,0,0.00,,,0.02,meteohub,2013-04-11 23:15:00,
2013-04-11 19:19:00,60.3,60.3,29.98,East,90,10.0,14.0,0,0.00,,,0.02,meteohub,2013-04-11 23:19:00,
2013-04-11 19:20:00,60.3,60.3,29.98,East,90,10.0,14.0,0,0.00,,,0.02,meteohub,2013-04-11 23:20:00,
2013-04-11 19:21:00,60.3,60.3,29.99,SE,135,11.0,14.0,0,0.00,,,0.02,meteohub,2013-04-11 23:21:00,
2013-04-11 19:25:00,60.1,60.1,29.98,East,90,11.0,14.0,0,0.00,,,0.02,meteohub,2013-04-11 23:25:00,
2013-04-11 19:27:00,59.9,59.9,29.98,East,90,17.0,17.0,0,0.00,,,0.02,meteohub,2013-04-11 23:27:00,
2013-04-11 19:30:00,59.7,59.7,29.98,SE,135,8.0,17.0,0,0.00,,,0.02,meteohub,2013-04-11 23:30:00,
2013-04-11 19:33:00,59.5,59.5,29.98,NE,45,9.0,17.0,0,0.00,,,0.02,meteohub,2013-04-11 23:33:00,
2013-04-11 19:35:00,59.4,59.4,29.98,South,180,9.0,17.0,0,0.00,,,0.02,meteohub,2013-04-11 23:35:00,
2013-04-11 19:36:00,59.2,59.2,29.98,NE,45,9.0,17.0,0,0.00,,,0.02,meteohub,2013-04-11 23:36:00,
2013-04-11 19:38:00,59.2,59.2,29.98,East,90,13.0,17.0,0,0.00,,,0.02,meteohub,2013-04-11 23:38:00,
2013-04-11 19:39:00,59.0,59.0,29.98,NE,45,11.0,17.0,0,0.00,,,0.02,meteohub,2013-04-11 23:39:00,
2013-04-11 19:41:00,59.0,59.0,29.98,SE,135,8.0,17.0,0,0.00,,,0.02,meteohub,2013-04-11 23:41:00,
2013-04-11 19:42:00,59.0,59.0,29.98,East,90,5.0,17.0,0,0.00,,,0.02,meteohub,2013-04-11 23:42:00,
2013-04-11 19:43:00,58.8,58.8,29.98,East,90,11.0,17.0,0,0.00,,,0.02,meteohub,2013-04-11 23:43:00,
2013-04-11 19:45:00,58.8,58.8,29.98,East,90,11.0,17.0,0,0.00,,,0.02,meteohub,2013-04-11 23:45:00,
2013-04-11 19:46:00,58.6,58.6,29.98,SE,135,11.0,15.0,0,0.00,,,0.02,meteohub,2013-04-11 23:46:00,
2013-04-11 19:47:00,58.6,58.6,29.97,SE,135,8.0,15.0,0,0.00,,,0.02,meteohub,2013-04-11 23:47:00,
2013-04-11 19:49:00,58.5,58.5,29.97,East,90,9.0,15.0,0,0.00,,,0.02,meteohub,2013-04-11 23:49:00,
2013-04-11 19:52:00,58.3,58.3,29.97,East,90,10.0,15.0,0,0.00,,,0.02,meteohub,2013-04-11 23:52:00,
2013-04-11 19:54:00,58.3,58.3,29.97,East,90,15.0,15.0,0,0.00,,,0.02,meteohub,2013-04-11 23:54:00,
2013-04-11 19:57:00,57.9,57.9,29.97,East,90,10.0,15.0,0,0.00,,,0.02,meteohub,2013-04-11 23:57:00,
2013-04-11 19:58:00,57.9,57.9,29.97,East,90,10.0,15.0,0,0.00,,,0.02,meteohub,2013-04-11 23:58:00,
2013-04-11 19:59:00,57.7,57.7,29.97,East,90,11.0,15.0,0,0.00,,,0.02,meteohub,2013-04-11 23:59:00,
2013-04-11 20:03:00,57.6,57.6,29.97,East,90,11.0,15.0,0,0.00,,,0.02,meteohub,2013-04-12 00:03:00,
2013-04-11 20:04:00,57.6,57.6,29.97,East,90,11.0,15.0,0,0.00,,,0.02,meteohub,2013-04-12 00:04:00,
2013-04-11 20:05:00,57.4,57.4,29.97,East,90,12.0,15.0,0,0.00,,,0.02,meteohub,2013-04-12 00:05:00,
2013-04-11 20:08:00,56.8,56.8,29.97,East,90,14.0,15.0,0,0.00,,,0.02,meteohub,2013-04-12 00:08:00,
2013-04-11 20:09:00,56.8,56.8,29.97,East,90,10.0,15.0,0,0.00,,,0.02,meteohub,2013-04-12 00:09:00,
2013-04-11 20:10:00,56.8,56.8,29.97,East,90,10.0,15.0,0,0.00,,,0.02,meteohub,2013-04-12 00:10:00,
2013-04-11 20:11:00,56.7,56.7,29.97,East,90,15.0,15.0,0,0.00,,,0.02,meteohub,2013-04-12 00:11:00,
2013-04-11 20:14:00,56.3,56.3,29.97,East,90,11.0,15.0,0,0.00,,,0.02,meteohub,2013-04-12 00:14:00,
2013-04-11 20:15:00,56.3,56.3,29.96,East,90,11.0,15.0,0,0.00,,,0.02,meteohub,2013-04-12 00:15:00,
2013-04-11 20:17:00,56.1,56.1,29.97,East,90,10.0,15.0,0,0.00,,,0.02,meteohub,2013-04-12 00:17:00,
2013-04-11 20:19:00,55.9,55.9,29.97,East,90,11.0,15.0,0,0.00,,,0.02,meteohub,2013-04-12 00:19:00,
2013-04-11 20:21:00,55.8,55.8,29.97,East,90,11.0,15.0,0,0.00,,,0.02,meteohub,2013-04-12 00:21:00,
2013-04-11 20:22:00,55.6,55.6,29.97,East,90,14.0,15.0,0,0.00,,,0.02,meteohub,2013-04-12 00:22:00,
2013-04-11 20:23:00,55.6,-0.2,29.97,East,90,11.0,15.0,10,0.00,,,0.02,meteohub,2013-04-12 00:23:00,
2013-04-11 20:25:00,55.4,-0.2,29.97,East,90,12.0,15.0,10,0.00,,,0.02,meteohub,2013-04-12 00:25:00,
2013-04-11 20:27:00,55.4,-0.2,29.97,SE,135,14.0,15.0,10,0.00,,,0.02,meteohub,2013-04-12 00:27:00,
2013-04-11 20:28:00,55.4,-0.2,29.97,East,90,10.0,15.0,10,0.00,,,0.02,meteohub,2013-04-12 00:28:00,
2013-04-11 20:30:00,55.2,1.6,29.97,East,90,15.0,15.0,11,0.00,,,0.02,meteohub,2013-04-12 00:30:00,
2013-04-11 20:33:00,55.2,1.6,29.97,East,90,14.0,14.0,11,0.00,,,0.02,meteohub,2013-04-12 00:33:00,
2013-04-11 20:34:00,55.0,1.4,29.97,East,90,11.0,14.0,11,0.00,,,0.02,meteohub,2013-04-12 00:34:00,
2013-04-11 20:37:00,55.0,3.4,29.97,East,90,14.0,15.0,12,0.00,,,0.02,meteohub,2013-04-12 00:37:00,
2013-04-11 20:38:00,54.9,3.2,29.97,East,90,11.0,15.0,12,0.00,,,0.02,meteohub,2013-04-12 00:38:00,
2013-04-11 20:39:00,54.9,3.2,29.98,East,90,13.0,15.0,12,0.00,,,0.02,meteohub,2013-04-12 00:39:00,
2013-04-11 20:42:00,54.5,4.6,29.97,SE,135,13.0,17.0,13,0.00,,,0.02,meteohub,2013-04-12 00:42:00,
2013-04-11 20:43:00,54.5,4.6,29.97,East,90,12.0,17.0,13,0.00,,,0.02,meteohub,2013-04-12 00:43:00,
2013-04-11 20:44:00,54.3,4.5,29.97,East,90,15.0,17.0,13,0.00,,,0.02,meteohub,2013-04-12 00:44:00,
2013-04-11 20:47:00,54.1,7.5,29.97,East,90,9.0,17.0,15,0.00,,,0.02,meteohub,2013-04-12 00:47:00,
2013-04-11 20:48:00,54.0,7.3,29.97,NE,45,15.0,17.0,15,0.00,,,0.02,meteohub,2013-04-12 00:48:00,
2013-04-11 20:49:00,53.8,7.2,29.97,East,90,12.0,17.0,15,0.00,,,0.02,meteohub,2013-04-12 00:49:00,
2013-04-11 20:53:00,53.6,9.9,29.97,East,90,13.0,19.0,17,0.00,,,0.02,meteohub,2013-04-12 00:53:00,
2013-04-11 20:54:00,53.4,10.9,29.97,East,90,13.0,19.0,18,0.00,,,0.02,meteohub,2013-04-12 00:54:00,
2013-04-11 20:55:00,53.4,10.9,29.97,East,90,15.0,19.0,18,0.00,,,0.02,meteohub,2013-04-12 00:55:00,
2013-04-11 20:58:00,53.2,13.1,29.98,SE,135,11.0,19.0,20,0.00,,,0.02,meteohub,2013-04-12 00:58:00,
2013-04-11 20:59:00,53.2,13.1,29.98,East,90,9.0,19.0,20,0.00,,,0.02,meteohub,2013-04-12 00:59:00,
2013-04-11 21:01:00,53.1,13.1,29.98,SE,135,9.0,19.0,20,0.00,,,0.02,meteohub,2013-04-12 01:01:00,
2013-04-11 21:05:00,53.1,14.2,29.98,East,90,8.0,19.0,21,0.00,,,0.67,meteohub,2013-04-12 01:05:00,
2013-04-11 21:08:00,53.1,15.3,29.98,East,90,8.0,15.0,22,0.00,,,0.02,meteohub,2013-04-12 01:08:00,
2013-04-11 21:10:00,53.1,16.2,29.98,East,90,8.0,15.0,23,0.00,,,0.02,meteohub,2013-04-12 01:10:00,
2013-04-11 21:11:00,53.1,16.2,29.99,East,90,7.0,15.0,23,0.00,,,0.02,meteohub,2013-04-12 01:11:00,
2013-04-11 21:13:00,53.1,16.2,29.98,East,90,7.0,15.0,23,0.00,,,0.02,meteohub,2013-04-12 01:13:00,
2013-04-11 21:15:00,53.1,16.2,29.98,East,90,10.0,14.0,23,0.00,,,0.02,meteohub,2013-04-12 01:15:00,
2013-04-11 21:17:00,53.1,16.2,29.98,SE,135,14.0,14.0,23,0.00,,,0.02,meteohub,2013-04-12 01:17:00,
2013-04-11 21:18:00,53.1,17.2,29.98,East,90,9.0,14.0,24,0.00,,,0.02,meteohub,2013-04-12 01:18:00,
2013-04-11 21:20:00,53.1,17.2,29.98,East,90,16.0,16.0,24,0.00,,,0.02,meteohub,2013-04-12 01:20:00,
2013-04-11 21:22:00,52.9,17.1,29.97,East,90,17.0,17.0,24,0.00,,,0.02,meteohub,2013-04-12 01:22:00,
2013-04-11 21:23:00,53.1,17.2,29.97,East,90,9.0,14.0,24,0.00,,,0.02,meteohub,2013-04-12 01:23:00,
2013-04-11 21:25:00,52.9,17.1,29.96,East,90,12.0,17.0,24,0.00,,,0.02,meteohub,2013-04-12 01:25:00,
2013-04-11 21:27:00,52.9,17.1,29.97,East,90,8.0,17.0,24,0.00,,,0.02,meteohub,2013-04-12 01:27:00,
2013-04-11 21:28:00,52.9,17.1,29.97,SE,135,14.0,17.0,24,0.00,,,0.02,meteohub,2013-04-12 01:28:00,
2013-04-11 21:29:00,52.9,17.1,29.96,East,90,8.0,17.0,24,0.00,,,0.02,meteohub,2013-04-12 01:29:00,
2013-04-11 21:30:00,52.9,17.1,29.96,East,90,8.0,17.0,24,0.00,,,0.02,meteohub,2013-04-12 01:30:00,
2013-04-11 21:32:00,52.9,17.1,29.96,East,90,8.0,17.0,24,0.00,,,0.02,meteohub,2013-04-12 01:32:00,
2013-04-11 21:34:00,52.9,17.1,29.96,East,90,8.0,17.0,24,0.00,,,0.02,meteohub,2013-04-12 01:34:00,
2013-04-11 21:36:00,52.9,17.1,29.95,East,90,8.0,17.0,24,0.00,,,0.02,meteohub,2013-04-12 01:36:00,
2013-04-11 21:37:00,52.7,17.8,29.95,East,90,15.0,17.0,25,0.00,,,0.02,meteohub,2013-04-12 01:37:00,
2013-04-11 21:39:00,52.7,17.8,29.95,East,90,11.0,17.0,25,0.00,,,0.02,meteohub,2013-04-12 01:39:00,
2013-04-11 21:42:00,52.7,18.7,29.95,SE,135,21.0,21.0,26,0.00,,,0.02,meteohub,2013-04-12 01:42:00,
2013-04-11 21:43:00,52.7,18.7,29.95,SE,135,15.0,15.0,26,0.00,,,0.02,meteohub,2013-04-12 01:43:00,
2013-04-11 21:44:00,52.7,18.7,29.95,NE,45,11.0,15.0,26,0.00,,,0.02,meteohub,2013-04-12 01:44:00,
2013-04-11 21:47:00,52.5,18.7,29.95,East,90,11.0,21.0,26,0.00,,,0.02,meteohub,2013-04-12 01:47:00,
2013-04-11 21:48:00,52.5,19.4,29.95,East,90,12.0,21.0,27,0.00,,,0.02,meteohub,2013-04-12 01:48:00,
2013-04-11 21:49:00,52.5,19.4,29.95,East,90,11.0,21.0,27,0.00,,,0.02,meteohub,2013-04-12 01:49:00,
2013-04-11 21:53:00,52.5,19.4,29.95,East,90,9.0,21.0,27,0.00,,,0.02,meteohub,2013-04-12 01:53:00,
2013-04-11 21:54:00,52.5,19.4,29.94,SE,135,12.0,21.0,27,0.00,,,0.02,meteohub,2013-04-12 01:54:00,
2013-04-11 21:55:00,52.5,20.3,29.94,East,90,10.0,21.0,28,0.00,,,0.02,meteohub,2013-04-12 01:55:00,
2013-04-11 21:59:00,52.3,20.1,29.95,East,90,15.0,21.0,28,0.00,,,0.02,meteohub,2013-04-12 01:59:00,
2013-04-11 22:00:00,52.3,20.1,29.95,East,90,11.0,21.0,28,0.00,,,0.02,meteohub,2013-04-12 02:00:00,
2013-04-11 22:04:00,52.3,21.0,29.94,East,90,13.0,15.0,29,0.00,,,0.02,meteohub,2013-04-12 02:04:00,
2013-04-11 22:05:00,52.3,21.0,29.94,ESE,113,12.0,17.0,29,0.00,,,0.02,meteohub,2013-04-12 02:05:00,
2013-04-11 22:09:00,52.3,21.0,29.94,East,90,11.0,17.0,29,0.00,,,0.02,meteohub,2013-04-12 02:09:00,
2013-04-11 22:10:00,52.3,21.0,29.94,East,90,15.0,17.0,29,0.00,,,0.02,meteohub,2013-04-12 02:10:00,
2013-04-11 22:12:00,52.3,21.0,29.94,East,90,13.0,17.0,29,0.00,,,0.02,meteohub,2013-04-12 02:12:00,
2013-04-11 22:13:00,52.3,21.0,29.95,East,90,10.0,17.0,29,0.00,,,0.02,meteohub,2013-04-12 02:13:00,
2013-04-11 22:14:00,52.3,21.0,29.94,East,90,10.0,17.0,29,0.00,,,0.02,meteohub,2013-04-12 02:14:00,
2013-04-11 22:15:00,52.3,21.0,29.95,East,90,11.0,17.0,29,0.00,,,0.02,meteohub,2013-04-12 02:15:00,
2013-04-11 22:17:00,52.2,20.8,29.94,East,90,11.0,17.0,29,0.00,,,0.02,meteohub,2013-04-12 02:17:00,
2013-04-11 22:18:00,52.2,20.8,29.94,East,90,11.0,17.0,29,0.00,,,0.02,meteohub,2013-04-12 02:18:00,
2013-04-11 22:19:00,52.2,20.8,29.94,NE,45,11.0,17.0,29,0.00,,,0.02,meteohub,2013-04-12 02:19:00,
2013-04-11 22:20:00,52.2,20.8,29.94,East,90,16.0,17.0,29,0.00,,,0.02,meteohub,2013-04-12 02:20:00,
2013-04-11 22:22:00,52.2,20.8,29.94,East,90,11.0,17.0,29,0.00,,,0.02,meteohub,2013-04-12 02:22:00,
2013-04-11 22:24:00,52.2,20.8,29.95,SE,135,10.0,17.0,29,0.00,,,0.02,meteohub,2013-04-12 02:24:00,
2013-04-11 22:25:00,52.2,21.7,29.94,East,90,11.0,17.0,30,0.00,,,0.02,meteohub,2013-04-12 02:25:00,
2013-04-11 22:27:00,52.2,21.7,29.94,East,90,11.0,17.0,30,0.00,,,0.02,meteohub,2013-04-12 02:27:00,
2013-04-11 22:28:00,52.2,21.7,29.94,East,90,14.0,17.0,30,0.00,,,0.02,meteohub,2013-04-12 02:28:00,
2013-04-11 22:30:00,52.2,21.7,29.94,East,90,12.0,17.0,30,0.00,,,0.02,meteohub,2013-04-12 02:30:00,
2013-04-11 22:32:00,52.2,21.7,29.94,East,90,12.0,17.0,30,0.00,,,0.02,meteohub,2013-04-12 02:32:00,
2013-04-11 22:33:00,52.2,21.7,29.94,East,90,12.0,17.0,30,0.00,,,0.02,meteohub,2013-04-12 02:33:00,
2013-04-11 22:35:00,52.2,21.7,29.94,East,90,12.0,17.0,30,0.00,,,0.02,meteohub,2013-04-12 02:35:00,
2013-04-11 22:37:00,52.2,21.7,29.93,SE,135,17.0,17.0,30,0.00,,,0.02,meteohub,2013-04-12 02:37:00,
2013-04-11 22:38:00,52.2,21.7,29.93,East,90,15.0,16.0,30,0.00,,,0.02,meteohub,2013-04-12 02:38:00,
2013-04-11 22:39:00,52.2,21.7,29.93,East,90,15.0,16.0,30,0.00,,,0.02,meteohub,2013-04-12 02:39:00,
2013-04-11 22:41:00,52.2,21.7,29.93,East,90,11.0,17.0,30,0.00,,,0.02,meteohub,2013-04-12 02:41:00,
2013-04-11 22:42:00,52.2,21.7,29.93,East,90,10.0,17.0,30,0.00,,,0.02,meteohub,2013-04-12 02:42:00,
2013-04-11 22:44:00,52.3,21.7,29.93,East,90,9.0,17.0,30,0.00,,,0.02,meteohub,2013-04-12 02:44:00,
2013-04-11 22:45:00,52.3,22.6,29.93,SE,135,11.0,17.0,31,0.00,,,0.02,meteohub,2013-04-12 02:45:00,
2013-04-11 22:47:00,52.3,22.6,29.93,East,90,11.0,17.0,31,0.00,,,0.02,meteohub,2013-04-12 02:47:00,
2013-04-11 22:48:00,52.3,22.6,29.93,SE,135,23.0,23.0,31,0.00,,,0.02,meteohub,2013-04-12 02:48:00,
2013-04-11 22:49:00,52.3,22.6,29.93,SE,135,23.0,23.0,31,0.00,,,0.02,meteohub,2013-04-12 02:49:00,
2013-04-11 22:50:00,52.5,22.8,29.92,East,90,15.0,17.0,31,0.00,,,0.02,meteohub,2013-04-12 02:50:00,
2013-04-11 22:52:00,52.5,22.8,29.92,East,90,10.0,17.0,31,0.00,,,0.02,meteohub,2013-04-12 02:52:00,
2013-04-11 22:54:00,52.5,22.8,29.93,East,90,11.0,17.0,31,0.00,,,0.02,meteohub,2013-04-12 02:54:00,
2013-04-11 22:55:00,52.5,22.8,29.92,East,90,11.0,17.0,31,0.00,,,0.02,meteohub,2013-04-12 02:55:00,
2013-04-11 22:58:00,52.7,22.8,29.92,SE,135,12.0,23.0,31,0.00,,,0.02,meteohub,2013-04-12 02:58:00,
2013-04-11 22:59:00,52.7,22.8,29.92,East,90,22.0,23.0,31,0.00,,,0.02,meteohub,2013-04-12 02:59:00,
2013-04-11 23:00:00,52.7,22.8,29.92,East,90,11.0,23.0,31,0.00,,,0.02,meteohub,2013-04-12 03:00:00,
2013-04-11 23:01:00,52.7,22.8,29.92,East,90,11.0,23.0,31,0.00,,,0.02,meteohub,2013-04-12 03:01:00,
2013-04-11 23:03:00,52.7,22.8,29.92,East,90,11.0,23.0,31,0.00,,,0.02,meteohub,2013-04-12 03:03:00,
2013-04-11 23:04:00,52.7,22.8,29.92,East,90,11.0,23.0,31,0.00,,,0.02,meteohub,2013-04-12 03:04:00,
2013-04-11 23:05:00,52.7,22.8,29.92,East,90,11.0,22.0,31,0.00,,,0.02,meteohub,2013-04-12 03:05:00,
2013-04-11 23:06:00,52.7,22.8,29.92,East,90,11.0,22.0,31,0.00,,,0.02,meteohub,2013-04-12 03:06:00,
2013-04-11 23:08:00,53.1,23.2,29.91,SE,135,12.0,22.0,31,0.00,,,0.02,meteohub,2013-04-12 03:08:00,
2013-04-11 23:10:00,52.9,23.0,29.92,East,90,15.0,22.0,31,0.00,,,0.02,meteohub,2013-04-12 03:10:00,
2013-04-11 23:12:00,53.1,23.2,29.91,SE,135,11.0,22.0,31,0.00,,,0.02,meteohub,2013-04-12 03:12:00,
2013-04-11 23:13:00,53.1,23.2,29.91,East,90,15.0,22.0,31,0.00,,,0.02,meteohub,2013-04-12 03:13:00,
2013-04-11 23:15:00,53.2,23.4,29.91,SE,135,11.0,15.0,31,0.00,,,0.02,meteohub,2013-04-12 03:15:00,
2013-04-11 23:17:00,53.2,23.4,29.91,East,90,13.0,15.0,31,0.00,,,0.02,meteohub,2013-04-12 03:17:00,
2013-04-11 23:19:00,53.2,23.4,29.91,East,90,10.0,15.0,31,0.00,,,0.02,meteohub,2013-04-12 03:19:00,
2013-04-11 23:22:00,53.4,23.5,29.91,East,90,17.0,17.0,31,0.00,,,0.02,meteohub,2013-04-12 03:22:00,
2013-04-11 23:24:00,53.4,23.5,29.91,East,90,14.0,15.0,31,0.00,,,0.02,meteohub,2013-04-12 03:24:00,
2013-04-11 23:27:00,53.4,23.5,29.91,East,90,15.0,17.0,31,0.00,,,0.02,meteohub,2013-04-12 03:27:00,
2013-04-11 23:28:00,53.4,23.5,29.91,SE,135,14.0,17.0,31,0.00,,,0.02,meteohub,2013-04-12 03:28:00,
2013-04-11 23:29:00,53.4,23.5,29.90,East,90,13.0,17.0,31,0.00,,,0.02,meteohub,2013-04-12 03:29:00,
2013-04-11 23:30:00,53.4,23.5,29.91,East,90,16.0,17.0,31,0.00,,,0.02,meteohub,2013-04-12 03:30:00,
2013-04-11 23:32:00,53.6,23.7,29.91,East,90,12.0,17.0,31,0.00,,,0.02,meteohub,2013-04-12 03:32:00,
2013-04-11 23:34:00,53.6,22.8,29.91,East,90,14.0,17.0,30,0.00,,,0.02,meteohub,2013-04-12 03:34:00,
2013-04-11 23:35:00,53.6,23.7,29.91,East,90,15.0,17.0,31,0.00,,,0.02,meteohub,2013-04-12 03:35:00,
2013-04-11 23:39:00,53.6,22.8,29.90,East,90,13.0,17.0,30,0.00,,,0.02,meteohub,2013-04-12 03:39:00,
2013-04-11 23:41:00,53.6,22.8,29.90,East,90,12.0,16.0,30,0.00,,,0.02,meteohub,2013-04-12 03:41:00,
2013-04-11 23:42:00,53.6,22.8,29.91,East,90,15.0,16.0,30,0.00,,,0.02,meteohub,2013-04-12 03:42:00,
2013-04-11 23:44:00,53.6,22.8,29.90,East,90,13.0,16.0,30,0.00,,,0.02,meteohub,2013-04-12 03:44:00,
2013-04-11 23:46:00,53.6,22.8,29.90,SE,135,19.0,19.0,30,0.00,,,0.02,meteohub,2013-04-12 03:46:00,
2013-04-11 23:48:00,53.6,22.8,29.90,East,90,13.0,17.0,30,0.00,,,0.02,meteohub,2013-04-12 03:48:00,
2013-04-11 23:49:00,53.6,22.8,29.89,SE,135,13.0,17.0,30,0.00,,,0.02,meteohub,2013-04-12 03:49:00,
2013-04-11 23:52:00,53.8,23.0,29.90,South,180,12.0,19.0,30,0.00,,,0.02,meteohub,2013-04-12 03:52:00,
2013-04-11 23:53:00,53.8,23.0,29.90,East,90,11.0,19.0,30,0.00,,,0.02,meteohub,2013-04-12 03:53:00,
2013-04-11 23:55:00,53.8,23.0,29.90,East,90,10.0,19.0,30,0.00,,,0.02,meteohub,2013-04-12 03:55:00,
2013-04-11 23:58:00,53.6,22.8,29.90,East,90,11.0,19.0,30,0.00,,,0.02,meteohub,2013-04-12 03:58:00,
2013-04-11 23:59:00,53.6,22.8,29.90,SE,135,9.0,19.0,30,0.00,,,0.02,meteohub,2013-04-12 03:59:00,